GFSMA_prec_radar_225.txt.gz
Reflectivity
-20 4 -20 -20 -20 -20 -20 -20 -20 -20 -20 -20 -20 -20 -20 -20 -20 -20 -20 -20 -20 -20 -20 -20 -20 -20 -20 -20 -20 -20 9 14 10 -5 -20 9 12 4 2 -20 -20 -20 -15
-20 -15 -20 -20 -20 -20 -20 -20 -20 -20 -20 -20 -20 -20 -20 -20 -20 -20 -20 -20 -20 -20 -16 -20 -20 -20 -20 -20 -20 -20 -20 -20 -20 -20 7 12 8 -18 -20 -20 -7 -20 -11
-20 -12 -20 -20 -20 -20 -20 -20 -20 -20 -20 -20 -20 -20 -20 -20 -20 -20 -20 -20 -20 -20 -15 -20 -20 -16 14 8 8 -20 -20 -20 -20 -20 7 -6 -20 5 -19 -2 -20 -20 -20
-12 -20 -20 -20 -20 -20 -20 -20 -20 -20 -20 -20 -20 -20 -20 -20 -20 -20 -20 -20 -20 -20 -20 -20 -20 -7 12 16 -20 -20 -12 -20 -17 -19 -20 -20 -20 -20 -20 10 7 -3 -5
-20 -18 -19 -20 -20 -20 -20 -20 -20 -20 -20 -20 -20 -20 -20 -20 -20 -20 -20 -20 -20 -20 -20 -20 -20 15 -15 -7 -20 -20 -20 -20 -20 -20 -20 -20 -20 -20 -12 -4 -12 -10 -1
-20 -20 -20 -20 -20 -20 -20 -20 -20 -20 -20 -20 -16 -20 -20 -20 -20 -20 -20 -20 -20 -20 -20 -20 -20 -7 -15 -20 10 7 -20 -20 -20 -20 -20 -20 -20 -20 -20 -20 -7 -16 -7
-20 -20 -20 -20 -20 -20 -5 -20 -20 -20 -20 -20 -20 -20 -20 -20 -20 -20 -20 -20 -20 -20 -20 -20 -20 -20 -20 -20 7 -4 -20 -20 -20 -20 -20 -20 -20 -20 -20 -20 -20 -20 -20
-19 6 -20 -20 -20 -20 -20 -20 -20 -16 -3 -20 -20 -20 -20 -20 -20 -20 -20 -20 -20 -20 -20 -20 -20 -20 -20 -20 -20 8 16 -20 -20 -20 -20 -20 -20 -20 -20 -20 -20 -20 -8
-17 2 -20 -20 -20 -20 -20 20 2 -20 -6 -12 -20 -20 -20 -20 -20 -20 -20 -20 -20 -20 -20 -20 -20 -20 -20 -20 -20 -19 8 -20 -14 -20 -20 -20 -20 -20 -20 -20 -20 -20 -20
3 7 2 -20 -20 -20 -20 -20 -20 -20 -20 -20 -20 -20 -20 -20 -20 -20 -20 -20 -20 -20 -20 -20 -20 -20 -20 -20 -20 -20 -20 -20 -16 10 -20 -16 -20 -20 -20 -20 -20 -20 -20
8 8 11 -19 -20 -20 -19 -3 -20 -12 -20 -20 -20 -20 -20 -20 -20 -20 -20 -20 -20 -20 -20 -20 -20 -20 -20 -20 -20 -20 -20 -20 -16 -1 -15 -5 -2 -3 -15 -20 -20 -3 -20
-6 12 13 11 -20 -20 -20 16 -11 16 -20 -20 -20 -20 -20 -20 -20 -20 -20 -20 -20 -20 -20 -20 -20 -20 -20 -20 -20 -20 -20 -20 -20 -20 -11 -3 -1 -2 0 -11 -20 -20 -20
-3 7 20 19 -0 -2 -20 -20 4 15 -6 16 -0 -20 -20 -20 -20 -20 -20 -20 -20 -20 -20 -20 -20 -20 -20 -20 -20 -20 -20 -20 -20 -20 -20 -20 -13 3 11 0 -3 -13 -10
23 26 -2 18 13 20 5 -14 -20 20 21 -13 2 5 -20 -20 -20 -20 -20 -20 -20 -20 -20 -20 -20 -20 -20 -20 -20 -20 -20 -20 -12 -20 -20 -20 -20 -5 4 9 17 -2 -2
20 31 30 12 20 17 19 14 10 17 15 8 10 -8 -1 -20 -6 -19 -20 -14 -16 -20 -20 -20 -20 -20 -20 -20 -20 -20 1 3 -16 12 17 21 21 27 22 3 9 17 4
31 19 15 15 24 19 19 21 18 10 19 17 16 13 3 9 6 3 16 2 -17 4 -6 -20 -20 -20 -20 9 13 5 -7 -18 20 8 22 30 35 36 34 27 17 24 19
-1 10 4 9 18 26 19 18 18 12 14 15 16 19 14 16 3 -4 1 15 5 -20 -20 -20 -20 -20 -20 -20 -20 -12 -20 14 20 8 35 38 34 36 32 29 29 25 27
40 36 -17 -7 14 9 13 15 20 12 16 13 14 14 14 18 14 17 9 6 4 14 4 -11 0 -14 -9 -0 -20 7 28 29 17 30 35 37 24 23 33 32 22 18 25
-7 -8 44 32 13 5 -11 -1 4 4 4 13 9 17 17 14 17 15 15 9 2 0 13 -13 22 7 9 0 25 -5 -19 -5 23 32 24 22 21 18 26 24 24 20 32
17 22 10 27 29 42 29 8 5 7 10 -15 -7 8 14 20 23 21 17 13 8 -4 10 -3 -12 -11 1 -6 0 10 16 31 26 15 20 24 18 18 19 31 26 21 25
-20 -20 -20 -20 -20 20 18 24 29 35 30 19 -15 6 2 10 19 14 6 6 5 18 5 22 20 21 20 13 22 28 37 37 26 6 9 19 23 23 25 33 28 36 23
-20 -20 -20 -20 -20 -20 20 22 13 24 47 33 24 34 27 -15 16 14 23 16 11 19 -6 2 21 5 26 -10 22 13 15 16 22 16 11 16 22 27 28 31 30 35 26
-20 -20 -20 -20 -20 -20 -14 3 23 16 16 5 -6 13 22 20 20 39 23 19 19 26 18 21 22 18 23 24 22 27 18 6 8 5 8 18 22 29 31 31 33 34 31
6 -16 -20 -20 -20 -20 5 -9 0 3 25 20 13 45 29 16 23 22 19 20 28 26 18 15 14 20 18 29 14 21 15 25 26 22 15 19 22 25 29 31 33 34 33
12 11 1 -20 -20 -20 -8 -17 -5 -20 -19 -0 34 31 21 29 28 20 25 28 12 30 28 23 23 12 8 14 27 24 25 15 22 28 28 19 17 15 31 32 34 37 33
-20 3 7 11 2 9 -1 -7 -3 -20 -20 -20 -19 12 21 -4 17 5 10 18 18 -3 16 19 18 19 18 13 23 29 27 18 18 14 23 12 9 21 25 30 36 35 33

GFSMA_prec_radar_231.txt.gz
Reflectivity
-20 -20 -8 -17 -20 -20 -20 -20 -20 -20 -20 -20 -20 -20 -20 -20 -20 -20 -20 -20 -20 -20 -20 -20 -20 -20 -14 16 12 8 -6 10 15 -0 6 14 12 12 13 12 10 14 13
-20 -20 -16 -20 -20 -20 -10 -20 -20 -20 -20 -20 -20 -20 -20 -20 -20 -20 -20 -20 -20 -20 -5 -1 9 -7 16 15 -17 -0 -2 7 -1 -14 -20 -7 0 -8 -20 -1 -8 -0 15
-20 -20 -19 10 -16 27 16 -20 -20 -20 -20 -20 -20 -20 -20 -20 -20 -20 -20 -20 -20 -20 5 1 -19 -13 2 -7 -8 -20 3 -20 -9 -20 -20 11 -20 -4 9 -20 -14 -17 15
-14 -20 -7 -12 20 24 27 -10 -20 -20 -20 -20 -20 -20 -20 -20 -20 -20 -20 -20 -20 -20 -17 -20 -8 9 12 -18 -4 1 -20 -7 -20 -20 -18 5 -2 -18 -20 -20 3 16 16
-6 -20 -20 23 28 7 1 17 -20 -20 -20 -20 -20 -20 -20 -20 -20 -20 -20 -20 -20 -20 -20 -20 -18 11 10 13 -15 -20 -13 -8 -20 -6 -12 -1 -20 14 -20 -20 -12 -13 -2
-20 -20 -20 -14 29 -10 -20 -4 -20 -20 -20 -20 -20 -20 -20 -20 -20 -20 -20 -20 -20 -20 -20 -20 -20 -19 -20 1 2 -1 4 -5 -20 1 13 -5 16 1 -19 -20 -20 -10 12
-20 -20 -20 -20 -12 -16 27 5 16 -20 -20 -20 -20 -20 -20 -20 -20 -20 -20 -20 -20 -20 -20 -20 -20 -20 -20 7 14 16 15 8 14 10 -20 16 12 -7 15 13 -5 3 17
-18 -20 -20 -20 -20 22 -13 -20 -12 -20 -20 -20 -20 -20 -20 -20 -20 -20 -20 -20 -20 -20 -20 -20 -20 -20 -20 -20 -20 -6 17 13 16 16 15 13 1 9 12 13 1 15 16
-14 8 -11 -20 -20 4 -15 11 -8 -17 -5 -20 -20 -20 -20 -20 -20 -20 -20 -20 -20 -20 -20 -20 -20 -20 -20 -20 -20 -20 -17 -10 -20 -16 12 14 15 13 14 0 10 7 16
-20 -18 -5 -20 -20 -20 -20 -20 -15 19 14 -20 -20 -20 -20 -20 -20 -20 -20 -20 -20 -20 -20 -20 -20 -20 -20 -20 -20 -20 -20 -20 -20 -20 -1 15 17 15 15 16 16 15 12
3 -19 10 -20 -20 -20 -20 -17 -20 -8 -0 -4 -20 -20 -20 -20 -20 -20 -20 -20 -20 -20 -20 -20 -20 -20 -20 -20 -20 -20 -20 -20 -20 -20 -17 15 14 15 13 15 15 15 15
8 22 11 -4 -13 -18 -20 -9 -20 -20 -20 22 21 -20 -20 -20 -20 -20 -20 -20 -20 -20 -20 -20 -20 -20 -20 -20 -20 -20 -20 -20 -20 -20 -20 10 8 13 15 11 6 8 -4
0 10 4 -15 -5 -14 -20 21 -20 -20 -20 -20 7 -20 -20 -20 -20 -20 -20 -20 -20 -20 -20 -20 -20 -20 -20 -20 -20 -20 -20 -20 -20 -20 -20 -20 -18 12 11 1 -6 -4 -3
9 6 27 -12 -19 -19 24 -18 -19 25 -20 10 -13 -20 -20 -20 -20 -20 -20 -20 -20 -20 -20 -20 -20 -20 -20 -20 -20 -20 -20 -20 -20 -20 -20 -20 -20 -20 -19 -2 9 8 20
33 36 32 29 13 32 29 -13 0 -12 8 18 13 7 8 -14 -20 -20 -20 -17 -20 -20 -20 -20 -20 -20 -20 -20 -20 -20 -20 4 2 -17 9 -20 -20 -16 1 -3 16 4 -6
22 28 38 30 32 24 29 28 28 26 -13 18 2 -4 -1 -9 4 -3 -11 10 10 12 -1 -20 -20 -20 -20 -20 -20 -16 -15 -9 6 -20 -11 -20 -13 -11 -20 -20 9 7 -20
-18 -12 25 25 18 28 21 27 27 28 -13 -6 -8 -5 -3 -20 -20 -20 -20 -16 -10 12 8 -16 -20 -20 -20 -20 -20 -20 2 -19 -9 8 -8 2 -7 -1 -3 0 10 16 18
21 -20 -14 33 42 21 24 27 27 25 27 27 29 18 -20 -4 -20 -20 -20 -20 -20 -20 16 3 -20 -4 -15 -18 -19 -20 -19 -20 -20 9 -20 12 -2 15 15 19 6 5 5
15 24 26 32 39 34 40 53 33 29 26 27 23 27 26 22 12 4 -20 -20 -20 -20 -20 -20 -14 -17 -20 -12 -18 -20 -20 -16 4 -20 24 20 -12 28 26 25 20 18 13
10 17 9 -7 36 5 7 11 23 38 37 36 43 26 20 23 21 21 20 -12 -20 -20 22 17 14 7 -5 -17 -9 -14 -18 -18 -13 -18 -18 14 28 24 30 21 14 16 16
-20 -20 -1 20 15 32 16 10 -19 15 18 33 26 31 36 22 17 -19 20 17 11 -3 -10 -18 13 26 -4 -19 17 12 -10 -4 9 -20 -11 8 30 26 34 25 17 16 15
-20 -20 -20 -20 7 8 -10 16 10 3 12 10 23 14 23 23 -0 20 30 12 15 5 1 12 9 10 4 19 4 17 15 19 16 29 28 29 27 28 34 26 22 19 25
-20 -20 -20 -20 -20 -20 4 11 10 -20 -11 -5 -4 -0 -3 28 32 22 38 25 39 27 33 23 23 36 29 16 18 30 26 28 21 20 26 32 25 33 20 30 23 21 20
-20 -20 -20 -20 -20 -19 8 13 -0 -20 -20 -20 6 13 7 6 15 13 8 31 35 13 5 27 36 14 13 22 36 40 36 26 25 29 25 29 14 29 23 15 23 19 24
-6 -20 -20 -20 -20 -20 12 10 0 -20 -20 -20 -20 -20 -17 7 16 -7 -7 11 3 -8 -20 -20 8 22 26 35 30 32 36 32 32 19 28 25 30 21 20 13 15 28 24
-20 -20 -20 -20 5 -20 9 12 10 -20 -20 -20 -20 -20 -1 -2 18 11 -6 3 -20 -16 -3 8 -10 5 16 26 20 29 33 32 22 8 6 11 30 33 24 9 17 24 22

GFSMA_prec_radar_234.txt.gz
Reflectivity
-20 -20 -20 -20 -20 -20 -20 -20 -20 -20 -20 -20 -20 -20 -20 -20 -20 -20 -20 -20 -20 -20 -20 0 15 8 16 15 12 10 8 12 11 9 10 11 11 2 8 7 -1 8 11
-20 -20 -20 -17 -12 -20 -20 -20 -20 -20 -20 -20 -20 -20 -20 -20 -20 -20 -20 -20 -20 -20 -20 -20 -20 -20 -20 12 13 11 -12 12 8 14 7 -13 -3 8 8 -7 -1 6 14
-20 4 -20 -20 25 -3 5 4 -20 -20 -20 -20 -20 -20 -20 -20 -20 -20 -20 -20 -20 -20 -20 -20 -20 -20 17 -19 -20 -20 -16 12 8 14 -20 -19 10 -19 -20 -20 -15 12 9
-20 -20 32 -15 -20 27 22 -20 -2 -20 -20 -20 -20 -20 -20 -20 -20 -20 -20 -20 -20 -20 -20 -20 -20 -14 -2 -19 12 7 13 2 -13 -20 -20 -20 -11 2 -20 -8 -12 15 13
-20 -20 -19 -19 23 10 15 -2 -10 -17 -20 -20 -20 -20 -20 -20 -20 -20 -20 -20 -20 -20 -20 -20 -20 -20 -10 -11 -18 -2 13 -2 15 -20 2 8 2 -17 -18 -18 14 15 15
-20 24 -19 7 22 24 20 -19 -12 -4 -17 -20 -20 -20 -20 -20 -20 -20 -20 -20 -20 -20 -20 -20 -20 -20 -20 -9 16 16 -20 -20 14 -13 -12 12 -3 14 -9 -17 13 -15 13
-13 -20 -20 -20 35 27 17 12 -14 0 6 -20 -20 -20 -20 -20 -20 -20 -20 -20 -20 -20 -20 -20 -20 -20 -20 -20 8 13 16 10 -13 12 15 10 13 14 7 -18 11 13 13
14 2 -19 7 0 9 12 -14 -7 -20 -20 -20 -20 -20 -20 -20 -20 -20 -20 -20 -20 -20 -20 -20 -20 -20 -20 -20 -20 -13 -17 16 12 15 16 9 12 13 7 10 13 13 9
-1 6 -10 -20 -14 21 14 27 27 -20 -15 -19 -20 -20 -20 -20 -20 -20 -20 -20 -20 -20 -20 -20 -20 -20 -20 -20 -20 -20 -20 0 14 13 13 14 12 15 15 13 10 9 13
3 -20 12 -11 -19 -11 8 22 20 -14 -20 -20 -20 -20 -20 -20 -20 -20 -20 -20 -20 -20 -20 -20 -20 -20 -20 -20 -20 -20 -20 -20 -12 -3 12 15 13 13 15 14 -5 2 6
6 -6 13 -3 18 -6 -20 27 -14 -20 -17 -20 -20 -20 -20 -20 -20 -20 -20 -20 -20 -20 -20 -20 -20 -20 -20 -20 -20 -20 -20 -20 -20 -20 -20 15 13 13 12 3 2 2 -19
18 5 -4 20 -3 17 -3 -20 24 -20 -0 16 22 -20 -20 -20 -20 -20 -20 -20 -20 -20 -20 -20 -20 -20 -20 -20 -20 -20 -20 -20 -20 -20 -20 -8 13 12 -1 4 2 1 3
20 -5 -20 1 -1 -9 -0 -20 -20 -20 -20 -20 -6 8 -5 -20 -20 -20 -8 -20 -20 -20 -20 -20 -20 -20 -20 -20 -20 -20 -20 -20 -20 -20 -20 -20 -10 3 3 -7 3 3 7
19 23 27 -3 -20 -20 -12 3 -19 29 -9 -14 -14 -15 -20 -19 -20 -19 -5 -20 -20 -20 -20 -20 -20 -20 -20 -20 -20 -20 -20 -20 -20 -20 -20 -20 -20 -20 -20 -17 -19 -6 3
6 3 -11 -2 15 28 23 22 -9 -19 29 26 -20 -20 6 -20 -20 -20 -20 -20 -20 -20 -20 -20 -20 -20 -20 -20 -20 -20 -20 -20 -20 -20 -20 -20 -20 -20 -20 -20 5 18 -6
33 21 34 27 30 29 7 18 26 26 27 14 27 -17 -20 -20 -20 -20 -20 -20 -20 -20 -20 -20 -20 -20 -20 -20 -20 -20 -20 -16 -4 -20 -20 2 -20 -20 -20 -20 12 -3 -20
29 26 7 33 37 26 23 15 -6 14 29 27 25 25 1 -20 -20 -20 -20 -20 -20 0 -20 -20 -20 3 -20 -20 -14 -20 -20 -20 -9 17 19 15 8 -7 0 -20 -20 -20 2
33 40 19 10 15 28 37 27 30 12 24 27 -4 8 15 -19 -16 -20 -20 -18 8 -20 -19 -20 -20 -20 -20 -20 -20 -20 -20 -20 -9 1 -3 14 -20 -20 -20 -20 4 8 20
28 26 23 21 25 22 27 20 37 40 38 36 32 25 25 26 26 25 6 -16 -20 1 4 -2 -20 -20 -20 -20 -20 -20 -20 -20 -20 16 -12 -14 3 -10 26 -7 36 15 19
16 -3 23 32 21 25 24 20 38 22 26 37 38 29 16 27 39 39 35 19 27 26 19 -18 -20 -20 -20 -20 -20 -20 -20 -20 -8 -20 -20 -20 6 17 -19 -9 28 28 30
20 20 11 -2 27 15 26 0 9 30 29 31 25 26 33 33 34 33 41 40 39 20 23 22 6 -20 -20 -20 -20 -15 -17 -19 11 8 -2 14 -20 8 2 21 25 33 25
21 23 32 -3 33 -17 9 3 -13 31 21 19 21 3 7 8 7 4 13 25 34 20 6 6 15 -14 -16 0 23 11 4 20 38 26 23 17 14 -10 22 26 27 23 35
8 -2 -7 15 -18 -20 6 -5 6 3 20 23 5 14 4 -20 -2 -17 5 17 30 27 13 11 2 8 20 -19 8 -2 6 14 36 32 11 9 15 24 37 32 32 36 29
6 8 -19 -20 -20 -20 5 2 1 6 2 -20 -12 17 25 10 3 21 25 18 10 -5 12 17 27 5 11 19 13 -2 16 32 20 15 -17 2 19 27 17 10 25 30 36
21 26 18 -6 -13 -20 -1 -12 7 -20 -20 -20 -20 -20 -20 9 23 12 -5 -8 -20 -20 -20 17 11 7 10 8 9 -5 16 16 10 10 25 20 12 16 24 24 20 28 34
8 1 3 -0 -20 -10 -2 -18 -20 -20 -20 -20 -20 -20 9 -3 -3 -2 4 4 13 6 10 7 -1 15 16 10 18 6 6 22 14 11 0 22 11 7 23 23 19 25 34

GFSMA_prec_radar_237.txt.gz
Reflectivity
-20 -20 -7 -20 -20 -20 -20 3 -20 -20 -20 -20 -20 -20 -20 -20 -20 -20 -20 -20 -20 -20 -20 2 14 10 -4 -6 -11 -7 5 6 12 11 -2 -3 7 -0 4 2 2 -6 2
-20 -20 -20 -12 -20 -20 -20 -18 0 -20 -20 -20 -20 -20 -20 -20 -20 -20 -20 -20 -20 -20 -20 -8 12 13 13 10 2 -4 -8 4 -0 -20 -16 -11 1 -15 -20 -20 -16 6 10
-20 -20 -20 -2 -2 -19 -20 -20 -20 -20 -20 -20 -20 -20 -20 -20 -20 -20 -20 -20 -20 -20 -20 -20 -20 -20 -19 9 -3 2 -11 -12 -20 -9 3 -20 9 10 -18 -19 1 10 10
-20 -20 -20 -7 -15 2 -17 -4 1 4 -19 -20 -20 -20 -20 -20 -20 -20 -20 -20 -20 -20 -20 -20 -20 -19 -17 -20 -20 -20 -19 9 -1 -9 -20 5 -7 -20 -20 -20 1 10 10
-20 -20 -8 -4 1 9 7 5 -13 -8 1 -20 -20 -20 -20 -20 -20 -20 -20 -20 -20 -20 -20 -20 -20 -14 7 -0 -2 3 13 11 -19 -3 -20 -20 -14 -11 -20 -20 9 -2 8
-6 -12 7 27 10 23 11 10 -4 -7 -17 -17 -20 -20 -20 -20 -20 -20 -20 -20 -20 -20 -20 -20 -20 -20 -19 -20 -17 -20 -4 -7 2 -20 -20 -20 -8 -19 -19 -2 1 5 -6
9 4 2 29 31 17 20 21 20 -20 -20 -19 -20 -20 -20 -20 -20 -20 -20 -20 -20 -20 -20 -20 -20 -20 -20 -20 -10 6 1 3 14 -5 -20 -20 -0 -14 -14 11 3 -4 1
-8 15 28 29 27 23 20 11 -5 8 -20 -7 -4 -20 -20 -20 -20 -20 -20 -20 -20 -20 -20 -20 -20 -20 -20 -20 -20 -13 -2 2 -4 -20 -18 5 -18 3 -1 -4 4 -7 3
-4 -6 -2 29 28 24 22 17 5 -20 0 -20 -15 -9 -20 -20 -20 -20 -20 -20 -20 -20 -20 -20 -20 -20 -20 -20 -20 -20 -20 -16 6 7 8 -7 -4 -4 1 -20 6 6 4
-11 -16 -8 -15 28 27 28 21 10 20 -20 -20 -20 -20 -20 -20 -20 -20 -20 -20 -20 -20 -20 -20 -20 -20 -20 -20 -20 -20 -20 -20 -19 3 8 -20 -1 3 10 9 8 11 -20
-13 26 1 -0 28 10 30 24 7 7 -12 -17 -20 -17 -14 -20 -20 -20 -20 -20 -20 -20 -20 -20 -20 -20 -20 -20 -20 -20 -20 -20 -20 -20 4 9 -0 -6 -10 7 9 9 3
1 0 29 13 25 30 -14 25 27 6 -20 -20 -20 -20 -20 -19 -20 -20 -20 -20 -20 -20 -20 -20 -20 -20 -20 -20 -20 -20 -20 -20 -20 -20 -20 2 8 6 -2 4 8 -0 7
6 7 -6 11 9 17 -15 -18 10 16 -8 -11 -18 -20 -20 2 -2 -20 -20 -20 -20 -20 -20 -20 -20 -20 -20 -20 -20 -20 -20 -20 -20 -20 -20 -20 -20 -20 7 -0 -5 -6 2
-4 -10 -7 13 22 -5 -13 29 3 30 -11 -15 -20 -20 -3 10 25 -20 -20 -20 -20 -20 -20 -20 -20 -20 -20 -20 -20 -20 -20 -20 -20 -20 -20 -20 -20 -20 -20 -20 -20 -10 0
11 12 -8 -19 -5 26 28 31 17 -0 9 -13 31 -12 19 13 12 17 6 -19 -20 -20 -20 -20 -20 -20 -20 -20 -20 -20 -20 -20 -20 -20 -20 -20 -20 -20 -20 -20 -20 -20 -20
4 -5 2 -2 11 2 13 -10 18 -17 -20 1 17 -12 -20 -20 6 21 23 3 -2 -6 -20 -20 2 -20 2 -20 -20 -20 -20 -20 -20 -20 -20 -20 -20 -20 -20 -20 -20 -20 -20
-9 23 10 9 11 24 -14 28 2 -19 -10 12 14 -10 -20 4 -20 -20 5 -20 -20 -20 -20 -20 -20 -20 -20 -20 -20 -20 -20 -20 -20 -20 -20 -20 -20 -20 -20 -20 -20 -20 -20
32 30 31 30 22 24 28 20 -6 17 13 2 4 7 4 12 -8 -19 0 -20 -20 -20 -20 -20 -20 -20 -20 -20 25 -20 -20 -20 -20 -20 -20 -20 -20 -20 -20 -20 -20 -20 -20
29 28 26 27 25 32 17 1 9 19 -14 -18 -13 17 23 14 4 5 14 27 -17 -11 -16 -20 -20 -7 -20 -20 -20 -20 28 -20 -20 -20 -20 11 -20 -20 -18 -20 -20 -20 -20
17 28 32 44 33 33 33 28 18 20 15 10 20 18 41 20 15 26 23 28 23 18 18 8 -2 -2 -15 -20 -20 -20 -20 -20 -20 -20 15 -1 7 -10 -6 -14 -20 -17 10
11 25 42 33 49 40 46 41 29 21 30 36 14 8 24 30 30 38 31 40 40 19 45 32 32 28 1 2 -16 -20 -15 -20 -12 -1 -20 -19 -20 3 6 21 25 29 36
-14 30 37 39 26 36 38 25 27 29 27 22 8 -20 4 23 18 26 26 33 32 31 29 5 18 40 27 25 39 30 12 -12 -20 -20 -20 1 -15 21 -17 18 20 8 9
19 14 27 27 17 28 26 22 9 -0 19 9 2 3 -4 2 31 3 7 13 -0 0 3 -20 -5 28 35 16 17 17 26 31 16 30 -16 -6 -16 -19 9 4 6 0 2
14 20 18 17 35 12 27 -15 -17 -19 -9 -20 8 16 -6 1 9 23 -1 1 -5 -3 20 -11 -1 9 18 26 16 25 19 4 31 18 4 11 2 16 -8 -20 -20 -9 9
7 19 2 14 1 -2 10 -18 -1 -20 -20 -20 -20 -20 -18 9 18 14 -2 -4 5 6 27 12 26 19 12 8 5 17 18 13 7 7 -9 3 -17 3 10 9 -20 -18 -19
21 11 -8 1 -12 19 15 -1 -18 -20 -20 -20 -20 -20 -18 -4 -20 -3 4 -10 6 -7 11 17 4 15 26 18 22 18 -20 10 20 -9 -3 -18 -14 -20 -5 11 -20 -20 -20

GFSMA_prec_radar_243.txt.gz
Reflectivity
-0 -14 -20 -20 -20 -20 -20 -20 -20 -20 -20 -20 -20 -20 -20 -20 -20 -20 -20 -20 -20 -20 2 13 7 9 -3 6 13 -6 -7 13 9 7 11 9 -6 -13 -20 -20 -20 -20 -1
2 -11 -5 -20 -20 -20 -20 -10 -10 -20 -20 -20 -20 -20 -20 -20 -20 -20 -20 -20 -20 -20 5 5 16 9 11 6 6 7 10 10 -6 12 -2 -20 -20 -20 -20 -20 -20 -20 -20
0 -17 -3 -20 -20 -20 -4 -20 -20 -20 -20 -20 -20 -20 -20 -20 -20 -20 -20 -20 -20 -20 2 12 6 -18 -9 -8 -19 4 3 -14 -18 -5 -19 -20 -20 -20 -20 -20 -20 -20 -20
-20 -14 1 -20 -20 -20 1 -20 -20 -20 -20 -20 -20 -20 -20 -20 -20 -20 -20 -20 -20 -20 -20 7 12 11 7 -6 -18 -20 -20 -20 -20 -20 -20 -20 -20 -20 -20 -20 -20 -20 -20
-20 -17 -14 6 11 -20 -17 5 -10 -20 -18 -20 -20 -20 -20 -20 -20 -20 -20 -20 -20 -20 -20 -20 2 2 5 14 11 -17 9 -7 -8 -20 -20 -20 -20 -20 -20 -20 -20 -20 -20
-20 -9 -17 -18 9 -10 -15 -8 -20 -20 -20 -20 -20 -20 -20 -20 -20 -20 -20 -20 -20 -20 -20 -20 -20 -20 -20 -18 8 -16 -20 -20 -20 -20 -20 -20 -20 -20 -20 -20 -20 -20 -20
-0 -6 -14 4 -16 13 -20 -20 -20 3 -20 -20 -20 -20 -20 -20 -20 -20 -20 -20 -20 -20 -20 -20 -20 -20 -20 -20 -20 -20 -20 -7 -20 -20 -20 -20 -20 -20 -20 -20 -20 -20 -20
-12 -20 -20 -1 -18 -9 5 -20 -20 -20 -20 -20 -10 12 -11 -20 -20 -20 -20 -20 -20 -20 -20 -20 -20 -20 -20 -20 -20 -20 -1 -15 -20 -20 -20 -20 -20 -20 -20 -20 -20 -20 -20
-20 -20 -20 -13 2 -20 -20 -20 -20 -20 -12 -17 -7 4 -3 -20 -20 -20 -20 -20 -20 -20 -20 -20 -20 -20 -20 -20 -20 -20 -20 -20 -20 -20 -20 -20 -20 -20 -20 -20 -20 -20 -20
11 -20 -20 -15 -5 -18 -12 -20 -20 -20 -20 -12 18 -12 -9 -20 -20 -20 -20 -20 -20 -20 -20 -20 -20 -20 -20 -20 -20 -20 -20 -20 -20 -20 -20 -20 -20 -20 -20 -20 -20 -20 -20
10 6 8 8 8 -1 -11 -16 21 19 -20 -20 19 23 14 -20 -20 -20 -20 -20 -20 -20 -20 -20 -20 -20 -20 -20 -20 -20 -20 -20 -20 -20 -20 -20 -20 -20 -20 -20 -20 -20 -20
3 3 10 11 4 -4 -8 22 18 24 21 19 27 33 24 16 -20 -20 -20 -20 -20 -20 -20 -20 -20 -20 -20 -20 -20 -20 -20 -20 -20 -20 -20 -20 -20 -20 -20 -20 -20 -20 -5
11 6 8 -14 -0 26 -13 4 6 15 14 -1 30 17 28 -13 -20 -8 -19 -20 -20 -20 -20 -20 -20 -20 -20 -20 -20 -20 -20 -20 -20 -20 -20 -20 -20 -20 -20 -20 -20 -20 3
-18 -6 -20 -20 -18 29 17 -14 -4 20 13 9 21 38 25 -18 -11 -10 -20 -20 -20 -20 -20 -20 -20 -20 -20 -20 -20 -20 -20 -20 -20 -20 -20 -20 -20 -20 -20 -20 -20 -20 -20
14 2 -20 -20 -9 21 -7 18 17 -19 1 22 13 24 12 10 -18 -20 -20 19 11 -20 -20 -20 -20 -20 -20 -20 -20 -20 -20 -20 -20 -20 -20 -20 -20 -20 -20 -20 -20 -20 -20
22 20 -16 -11 3 8 -7 24 23 -2 2 -15 5 -13 -14 4 -20 -20 -14 -20 15 -18 -20 -20 -20 -20 -20 -20 -20 -20 -20 -20 -20 -20 -20 -20 -20 -20 -20 -20 -20 -20 -20
3 -6 24 3 17 16 13 8 23 16 -20 22 9 -20 -20 5 6 -20 -20 -18 -20 -4 -20 3 -12 -20 -20 -20 -20 -20 -20 -20 -20 -20 -20 -20 -20 -20 -20 -20 -20 -20 -20
-5 32 31 1 15 13 9 8 29 19 -20 19 -20 -18 -20 6 11 11 -19 -20 -20 15 -20 -20 -20 -14 -20 -20 -20 -20 -20 -20 -20 -20 -20 -20 -20 -20 -20 -20 -20 -20 -20
22 30 32 29 10 7 21 28 16 1 3 16 25 -13 -20 26 -6 -18 4 -19 -20 -20 3 -19 -11 -20 -17 -20 -20 -9 -19 -20 -20 -20 -20 -20 -20 -20 -20 -20 -20 -20 -20
30 28 33 29 33 38 28 12 24 -3 -1 -6 6 29 24 19 23 22 -20 -16 2 -9 -5 4 -20 -20 -20 -14 5 -16 2 -15 -20 -20 -14 -20 -20 -20 -20 -20 -20 -20 -20
27 25 33 17 15 9 26 27 28 29 11 18 12 -7 0 24 21 20 -2 -4 -12 -1 6 5 -20 -20 -12 8 -20 -11 -11 -11 -20 -12 -20 1 -18 -14 -3 16 -13 -11 -9
29 34 37 30 28 20 28 22 28 16 33 30 23 26 0 20 25 15 39 17 23 24 26 22 15 17 -19 11 23 12 -5 20 -17 17 -9 -3 -14 4 11 13 -8 5 1
32 37 42 28 21 16 20 22 33 16 34 31 27 37 38 41 42 32 35 26 45 32 32 12 5 -3 27 34 22 29 27 27 19 15 21 2 -15 18 15 -20 -8 1 -0
43 42 41 37 28 35 24 22 25 13 18 43 38 38 31 35 27 29 33 30 32 37 31 35 -8 8 12 15 29 32 26 26 21 18 15 8 6 25 16 10 29 18 5
28 37 29 30 20 23 22 18 35 -9 28 37 12 17 20 30 23 34 29 27 29 19 12 16 28 9 1 11 31 17 10 25 23 11 8 -12 12 12 12 8 -20 2 -20
32 37 23 35 35 27 31 24 21 -9 -7 -17 1 10 13 15 21 31 23 14 18 1 -4 8 12 16 22 19 32 18 4 2 12 11 3 8 14 19 25 16 11 -20 -20

GFSMA_prec_radar_246.txt.gz
Reflectivity
-20 -20 -20 -20 -20 -20 -20 -20 -20 -20 -20 -20 -20 -20 -20 -20 -20 -20 -20 -20 -20 -20 -20 -16 12 -13 18 13 5 8 12 10 7 11 8 6 -4 3 -20 -20 -20 -9 2
-20 -20 -11 -20 -9 -20 -20 -20 -20 -20 -20 -20 -20 -20 -20 -20 -20 -20 -20 -20 -20 -20 14 11 13 10 -0 5 12 2 -14 10 17 11 9 2 -2 -20 -20 -20 -20 -20 -17
-20 -20 4 -20 -13 -20 -20 -20 -20 -20 -20 -20 -20 -20 -20 -20 -20 -20 -20 -20 -20 -20 9 9 17 15 18 16 15 -0 11 14 5 13 2 -18 -20 -20 -20 -20 -20 -20 -20
-20 -20 6 -18 -3 -20 -20 -20 -20 -20 -20 -20 -20 -20 -20 -20 -20 -20 -20 -20 -20 -20 -20 -20 -6 11 15 14 14 13 12 12 10 12 -11 -20 -20 -20 -20 -20 -20 -20 -20
-20 -20 -12 -19 -19 -7 -20 -20 -20 -20 -20 -20 -20 -20 -20 -20 -20 -20 -20 -20 -20 -20 -20 -20 3 9 5 11 9 7 16 6 -2 4 -20 -20 -20 -20 -20 -20 -20 -20 -20
-20 -20 -20 -15 -16 -20 -20 -20 -20 -20 -20 -20 -20 -20 -20 -20 -20 -20 -20 -20 -20 -20 -20 -20 -20 -14 9 12 15 4 -20 -18 -20 -20 -20 -20 -20 -20 -20 -20 -20 -20 -20
-20 -20 -20 -20 -20 -13 -20 -20 -20 -20 -20 -20 -20 -20 -20 -20 -20 -20 -20 -20 -20 -20 -20 -20 -20 -20 -20 -20 1 -2 -14 -1 -20 -20 -20 -20 -20 -20 -20 -20 -20 -20 -20
-16 -20 -20 -20 -20 -3 -13 -19 -20 -20 -20 -20 -20 -20 -20 -20 -20 -20 -20 -20 -20 -20 -20 -20 -20 -20 -20 -20 -20 -20 -20 -20 -20 -20 -20 -20 -20 -20 -20 -20 -20 -20 -20
-20 -2 -20 -20 -19 -14 2 -20 -20 -2 -20 -20 -20 -20 -20 -20 -20 -14 -20 -20 -20 -20 -20 -20 -20 -20 -20 -20 -20 -20 -20 -20 -20 -20 -20 -20 -20 -20 -20 -20 -20 -20 -20
-20 -15 -20 -20 -13 2 13 -20 -20 -20 -20 -20 -20 -20 -20 -20 -18 -19 -20 -20 -20 -20 -20 -20 -20 -20 -20 -20 -20 -20 -20 -20 -20 -20 -20 -20 -20 -20 -20 -20 -20 -20 -20
-9 -20 -20 -18 -9 -15 3 3 -20 -20 -20 -20 -20 -20 -20 -20 -20 -15 -20 -20 -20 -20 -20 -20 -20 -20 -20 -20 -20 -20 -20 -20 -20 -20 -20 -20 -20 -20 -20 -20 -20 -20 -20
12 -14 -20 -20 -20 3 -20 -20 -20 -18 -20 -20 -20 -20 -20 -20 -20 2 -18 -11 -20 -20 -20 -20 -20 -20 -20 -20 -20 -20 -20 -20 -20 -20 -20 -20 -20 -20 -20 -20 -20 -20 -6
31 5 -6 -9 -20 -13 -17 -20 23 19 20 10 -20 -20 -20 -4 -4 -20 -20 -20 -20 -20 -20 -20 -20 -20 -20 -20 -20 -20 -20 -20 -20 -20 -20 -20 -20 -20 -20 -20 -20 -20 -20
29 -20 -20 -20 6 -20 -20 4 -15 -13 16 -15 -20 -20 -19 4 24 13 25 -13 -20 -20 -20 -20 -20 -20 -20 -20 -20 -20 -20 -20 -20 -20 -20 -20 -20 -20 -20 -20 -20 -20 -20
32 38 -0 -14 6 4 -5 -3 -16 -14 5 -20 -20 8 -20 9 13 -20 -14 8 8 -20 -20 -20 -20 -20 -20 -20 -20 -20 -20 -20 -20 -20 -20 -20 -20 -20 -20 -20 -20 -20 -20
44 37 10 7 7 4 -20 -6 -20 -20 16 18 -12 -9 -20 -14 5 -12 -2 -20 -20 -20 -20 -20 -20 -20 -20 -20 -20 -20 -20 -20 -20 -20 -20 -20 -20 -20 -20 -20 -20 -20 -20
46 50 40 22 33 17 14 -19 -20 -20 -20 23 13 -11 -20 -20 -11 -12 17 -20 -6 -20 -20 -20 -20 -20 -20 -20 -20 -20 -20 -20 -20 -20 -20 -20 -20 -20 -20 -20 -20 -20 -20
32 44 47 33 33 24 9 2 -7 -20 -4 -20 -20 -20 -20 -20 -20 -20 -20 -20 -20 -20 -20 -20 -20 -20 -20 -20 -20 -20 -20 -20 -20 -20 -20 -20 -20 -20 -20 -20 -20 -20 -20
28 33 24 35 43 29 22 20 1 4 -8 -12 -16 0 10 -18 -20 -20 -20 -20 -20 -20 -20 -20 -15 -20 -20 -20 -20 -20 -20 -20 -20 -20 -20 -20 -20 -20 -20 -20 -20 -20 -20
-2 4 10 13 21 42 37 25 17 16 12 21 2 -10 -5 -12 -20 -20 -20 -20 -20 -14 -11 -20 -19 -3 -20 -20 -20 -20 -20 -20 -20 -20 -20 -20 -20 -20 -20 -20 -20 -20 -20
14 8 10 19 10 13 32 28 25 31 3 20 -13 -5 -2 -14 4 -1 -11 -20 -20 -4 -19 -3 -19 -20 10 -9 -19 -20 -20 -20 -19 -12 -20 -20 -19 -20 -20 -20 -20 -5 -20
13 12 -0 11 15 3 22 38 31 21 23 23 32 4 9 21 -19 4 18 15 -8 -20 -20 -20 -7 -15 8 -18 -20 11 -19 -20 -20 -1 4 -20 -20 -20 6 -11 -16 18 13
35 15 19 28 31 21 31 42 37 32 18 38 27 15 15 22 28 7 5 18 10 22 22 2 13 1 -5 -10 -20 12 21 10 3 11 11 19 -5 -20 12 11 10 -20 -5
18 28 31 40 29 22 29 33 34 34 39 38 32 35 27 31 24 47 32 27 21 26 26 33 37 17 35 38 36 30 20 16 34 25 -1 36 18 27 -4 24 20 3 4
33 26 31 34 38 31 29 38 36 34 23 11 31 28 25 30 29 37 31 40 28 24 39 32 38 38 29 33 35 31 25 13 6 17 27 13 10 12 4 7 -20 -4 10
10 23 30 33 34 32 37 39 39 42 29 14 40 22 24 9 10 24 23 19 20 8 29 32 40 38 34 21 14 13 9 -12 3 11 8 18 -1 11 10 1 -13 -20 -20

GFSMA_prec_radar_249.txt.gz
Reflectivity
-20 -20 -20 -20 -20 -20 -20 -20 -20 -20 -20 -20 -20 -20 -20 -20 -20 -20 -20 -20 -20 -20 0 -14 11 10 -20 13 19 15 17 10 16 11 13 11 13 17 14 17 11 9 14
-20 -20 -20 -20 -20 -20 -20 -20 -20 -20 -20 -20 -20 -20 -20 -20 -20 -20 -20 -20 -20 -20 -20 12 13 4 17 14 15 12 14 15 12 17 17 6 7 0 -20 -20 -20 -20 -19
-20 -20 -20 -20 -20 -20 -20 -20 -20 -20 -20 -20 -20 -20 -20 -20 -20 -20 -20 -20 -20 -20 -10 18 6 12 19 17 17 -1 1 12 14 12 13 2 -9 -20 -20 -20 -20 -20 -20
-20 -20 -20 -20 -20 -20 -20 -20 -20 -20 -20 -20 -20 -20 -20 -20 -20 -20 -20 -20 -20 -20 -20 -20 8 10 15 16 15 14 4 8 14 11 7 -2 -20 -20 -20 -20 -20 -20 -20
-20 -20 -20 -20 -20 -20 -20 -20 -20 -20 -20 -20 -20 -20 -20 -20 -20 -20 -20 -20 -20 -20 -20 -20 -20 -18 10 11 14 12 12 11 -4 -4 10 -20 -20 -20 -20 -20 -20 -20 -20
-20 -20 -20 -20 -20 -20 -20 -20 -20 -20 -20 -20 -20 -20 -20 -20 -20 -20 -20 -20 -20 -20 -20 -20 -20 -20 -20 -16 -4 8 10 13 10 10 6 -20 -20 -20 -20 -20 -20 -20 -20
-0 -20 -20 -20 -20 -20 -20 -15 -13 -20 -20 -20 -20 -20 -20 -20 -20 -20 -20 -20 -20 -20 -20 -20 -20 -20 -20 -20 -20 -20 -14 -20 1 -18 -8 -20 -20 -20 -20 -20 -20 -20 -20
-20 -20 -20 -20 -20 -20 -12 -20 -20 -20 -20 -20 -20 -20 -20 -20 -20 -20 -20 -20 -20 -20 -20 -20 -20 -20 -20 -20 -20 -20 -20 -20 -20 -12 -20 -7 -20 -20 -20 -20 -20 -20 -20
-10 -9 -15 -20 -20 -20 -16 -20 -20 -20 -20 -20 -20 -20 -20 -20 -20 -20 -20 -20 -20 -20 -20 -20 -20 -20 -20 -20 -20 -20 -20 -20 -20 -20 -20 -20 -20 -20 -20 -20 -20 -20 -20
-8 -20 -20 -20 -20 -20 -20 -20 -20 -20 -20 -20 -20 -20 -20 -20 -20 -20 -20 -20 -20 -20 -20 -20 -20 -20 -20 -20 -20 -20 -20 -20 -20 -20 -20 -20 -20 -20 -20 -20 -20 -20 -20
30 -11 -20 -20 -20 31 -18 -20 -20 -20 -20 -20 -20 -20 -20 -20 -20 -20 -20 -20 -20 -20 -20 -20 -20 -20 -20 -20 -20 -20 -20 -20 -20 -20 -20 -20 -20 -20 -20 -20 -20 -6 0
39 0 3 -16 -10 -20 -20 -20 -20 -20 -20 -20 -20 -20 -20 -20 -20 -20 -20 -20 -20 -20 -20 -20 -20 -20 -20 -20 -20 -20 -20 -20 -20 -20 -20 -20 -20 -20 -20 -20 -20 -11 13
47 29 20 15 28 30 22 -20 -20 -20 -20 -20 -20 -20 -20 -20 -20 -20 -20 -20 -20 -20 -20 -20 -20 -20 -20 -20 -20 -20 -20 -20 -20 -20 -20 -20 -20 -20 -20 -20 -20 9 -4
38 43 25 21 34 30 5 -20 -20 -20 -20 -20 -20 -20 -20 -20 -20 -20 -20 -20 -20 -20 -20 -20 -20 -20 -20 -20 -20 -20 -20 -20 -20 -20 -20 -20 -20 -20 -20 -20 -20 -20 -20
41 49 40 30 33 -5 30 -20 -20 -20 -16 -20 -20 -20 -20 -20 -20 -20 -20 -20 -20 -20 -20 -20 -20 -20 -20 -20 -20 -20 -20 -20 -20 -20 -20 -20 -20 -20 -20 -20 -20 -20 -20
35 38 21 20 45 27 13 -6 23 -14 -20 -3 -2 -20 -20 -20 -20 -20 -20 -20 -20 -20 -20 -20 -20 -20 -20 -20 -20 -20 -20 -20 -20 -20 -20 -20 -20 -20 -20 -20 -20 -20 -20
27 26 34 7 41 34 15 -0 31 31 9 -20 -19 -20 -20 -20 -20 -20 -20 -20 -20 -20 -20 -20 -20 -20 -20 -20 -20 -20 -20 -20 -20 -20 -20 -20 -20 -20 -20 -20 -20 -20 -20
10 20 35 46 30 48 45 14 35 33 -20 -20 -20 -20 -20 -20 -20 -20 -20 -20 -20 -20 -20 -20 -20 -20 -20 -20 -20 -20 -20 -20 -20 -20 -20 -20 -20 -20 -20 -20 -20 -20 -20
20 20 36 43 31 25 45 47 11 15 13 5 21 13 -20 6 4 -20 -20 -20 -20 -20 -20 -20 -20 -20 -20 -20 -20 -20 -20 -20 -20 -20 -20 -20 -20 -20 -20 -20 -20 -20 -20
27 36 37 39 36 40 47 48 37 29 15 -1 -20 -9 5 -20 -20 -20 -20 -20 -20 -20 -20 -20 -20 -20 -20 -20 -20 -20 -20 -20 -20 -20 -20 -20 -20 -20 -20 -20 -20 -20 -20
22 30 24 35 32 34 38 42 44 34 38 21 10 1 -14 14 12 5 -14 -20 -20 -20 -20 -20 -20 -20 -20 -20 -20 -20 -20 -20 -20 -20 -20 -20 -20 -20 -20 -20 -20 -20 -20
6 12 11 11 12 12 24 24 38 38 32 35 25 15 -4 7 -20 5 17 -6 10 -20 -20 -20 -20 -20 -20 -20 -20 -20 -20 -20 -20 -20 -14 -20 -20 -20 -20 -20 -20 -20 -20
1 5 11 2 0 12 23 18 19 39 24 28 39 23 23 14 22 14 -19 10 13 14 -16 -20 -20 -20 -20 -20 -16 -20 -20 -20 -20 -18 -11 -13 -2 -20 -20 -20 -20 -20 -13
-6 -1 -2 -6 2 5 18 -5 1 8 20 29 22 32 42 36 23 15 -12 7 -7 12 -1 -19 -20 -20 -20 -20 -15 -1 16 -6 3 5 23 2 2 14 15 22 12 8 17
-20 -19 -5 -4 -4 -7 8 -7 -6 19 21 21 19 26 27 30 28 15 32 28 18 17 26 16 13 19 21 18 12 27 31 26 20 37 24 34 33 14 4 24 15 25 32
-20 -20 -20 -19 -12 -20 -4 -7 -3 28 22 12 27 27 38 19 35 13 31 44 38 17 37 33 17 35 36 28 30 28 35 27 22 21 27 23 25 14 25 21 21 19 8

GFSMA_prec_radar_252.txt.gz
Reflectivity
-20 -20 -20 6 -20 -20 -20 -20 -20 -20 -20 -20 -20 -20 -20 -20 -20 -20 -20 -20 -20 -20 -20 -20 -20 -16 -20 -20 -17 -20 11 13 17 17 8 15 15 13 17 11 10 12 10
-20 -20 -9 16 -3 -20 -20 -20 -20 -20 -20 -20 -20 -20 -20 -20 -20 -20 -20 -20 -20 -20 -14 -17 13 14 12 18 18 16 13 13 4 5 13 15 14 16 -3 -20 -20 -12 -20
-20 -20 -20 9 -4 -20 -20 -20 -20 -20 -20 -20 -20 -20 -20 -20 -20 -20 -20 -20 -20 -14 -11 -20 10 -3 -7 15 15 12 11 9 11 14 12 16 16 7 -20 -20 -20 -20 -20
-20 -20 -20 -3 -4 -20 -20 -20 -20 -20 -20 -20 -20 -20 -20 -20 -20 -20 -20 -20 -20 -20 -20 -20 9 15 8 9 11 10 11 12 -7 12 4 13 13 -20 -20 -20 -20 -20 -20
-20 -20 -20 -20 -20 -20 -20 -20 -20 -20 -20 -20 -20 -20 -20 -20 -20 -20 -20 -20 -20 -20 -20 -20 -20 -20 4 8 0 -9 -15 -20 6 11 4 11 13 -20 -20 -20 -20 -20 -20
-20 -20 -11 -10 -20 -20 -20 -20 -20 -20 -20 -20 -20 -20 -20 -20 -20 -20 -20 -20 -20 -20 -20 -20 -20 -20 -19 -18 -8 4 9 12 -17 3 -0 15 2 -20 -20 -20 -20 -20 -20
-20 -11 0 -20 -20 -20 -20 -20 -20 -20 -20 -20 -20 -20 -20 -20 -20 -20 -20 -20 -20 -20 -20 -20 -20 -20 -20 -20 -20 -2 6 15 15 -20 -12 11 8 -20 -20 -20 -20 -20 -20
7 -20 -5 -20 -20 -7 -20 -20 -20 -20 -20 -20 -20 -20 -20 -20 -20 -20 -20 -20 -20 -20 -20 -20 -20 -20 -20 -20 -20 -20 -20 10 15 4 4 6 13 -6 -20 -20 -20 -20 -20
11 -3 -18 -20 -20 22 7 -18 -20 -20 -20 -20 -20 -20 -20 -20 -20 -20 -20 -20 -20 -20 -20 -20 -20 -20 -20 -20 -20 -20 -20 -20 -9 2 -20 -11 -4 14 -20 -12 -20 -20 -20
10 29 -5 -14 -20 23 -15 -2 -16 -20 -20 -20 -20 -20 -20 -20 -20 -20 -20 -20 -20 -20 -20 -20 -20 -20 -20 -20 -20 -20 -20 -20 -20 -20 -6 -20 -20 -20 -17 -20 -20 -20 -20
38 17 -8 -7 -17 -20 20 20 12 -20 -20 -20 -20 -20 -20 -20 -20 -20 -20 -20 -20 -20 -20 -20 -20 -20 -20 -20 -20 -20 -20 -20 -20 -20 -20 -20 -20 -20 -20 -20 -20 -19 -20
48 29 -11 -11 -20 -7 -20 22 -1 20 -20 -20 -20 -20 -20 -20 -20 -20 -20 -20 -20 -20 -20 -20 -20 -20 -20 -20 -20 -20 -20 -20 -20 -20 -20 -20 -20 -20 -20 -20 -20 -0 14
41 45 24 -19 -20 -17 -9 -9 22 -14 -20 -20 -20 -20 -20 -20 -20 -20 -20 -20 -20 -20 -20 -20 -20 -20 -20 -20 -20 -20 -20 -20 -20 -20 -20 -20 -20 -20 -20 -20 -14 1 18
37 42 37 26 -3 3 29 -15 26 14 22 -20 -20 -20 -20 -20 -20 -20 -20 -20 -20 -20 -20 -20 -20 -20 -20 -20 -20 -20 -20 -20 -20 -20 -20 -20 -20 -20 -20 -20 -20 -9 14
15 26 41 48 43 27 30 16 -13 13 -3 -20 -20 -20 -20 -20 -20 -20 -20 -20 -20 -20 -20 -20 -20 -20 -20 -20 -20 -20 -20 -20 -20 -20 -20 -20 -20 -20 -20 -20 -20 -20 -20
28 21 36 45 49 44 30 30 28 25 22 -1 -20 -20 -20 -20 -20 -20 -20 -20 -20 -20 -20 -20 -20 -20 -20 -20 -20 -20 -20 -20 -20 -20 -20 -20 -20 -20 -20 -20 -20 -20 -20
5 6 8 17 26 41 42 32 29 26 22 22 -17 -20 -20 -20 -20 -20 -20 -20 -20 -20 -20 -20 -20 -20 -20 -20 -20 -20 -20 -20 -20 -20 -20 -20 -20 -20 -20 -20 -20 -20 -20
6 19 20 28 28 40 51 42 32 41 20 24 20 -20 -20 -20 -20 -20 -20 -20 -20 -20 -20 -20 -20 -20 -20 -20 -20 -20 -20 -20 -20 -20 -20 -20 -20 -20 -20 -20 -20 -20 -20
-6 20 34 40 39 28 42 35 39 46 34 19 17 24 -20 -0 -20 16 9 -20 -20 -20 -20 -20 -20 -20 -20 -20 -20 -20 -20 -20 -20 -20 -20 -20 -20 -20 -20 -20 -20 -20 -20
14 23 35 42 44 38 37 34 24 39 33 34 22 5 23 6 -20 -20 -20 -1 -20 -20 -20 -20 -20 -20 -20 -20 -20 -20 -20 -20 -20 -20 -20 -20 -20 -20 -20 -20 -20 -20 -20
23 29 36 32 38 29 36 32 28 30 40 39 11 31 24 18 -20 14 -5 -20 -11 -3 -20 -20 -20 -20 -20 -20 -20 -20 -20 -20 -20 -20 -20 -20 -20 -20 -20 -20 -20 -20 -20
18 31 25 35 26 35 21 10 26 25 31 40 40 27 22 23 20 27 5 -20 -20 -20 -20 12 -20 -20 -20 -20 -20 -20 -20 -20 -20 -20 -20 -20 -20 -20 -20 -20 -20 -20 -20
12 18 13 24 26 29 18 13 15 27 33 37 39 43 35 23 26 7 -19 13 -14 6 5 -20 -20 -16 -20 -20 -20 -20 -20 -20 -20 -20 -20 -20 -20 -20 -20 -20 -20 -20 -20
-20 -11 -6 5 9 6 22 4 -0 24 29 26 24 31 28 35 27 0 -10 -12 3 2 0 -2 -20 -11 -20 -20 -20 -20 -20 -20 -18 -8 -20 -18 -3 -17 -20 -20 -20 -20 -3
-20 -20 -20 -18 -3 -0 5 -6 -4 8 18 18 31 33 37 37 38 37 9 16 -20 -1 16 4 2 14 4 -0 -20 -20 -5 -7 14 13 -4 -19 12 12 8 8 -20 -20 6
-20 -20 -20 -20 -20 -5 -6 -18 -11 -17 -0 -3 12 24 31 30 30 28 25 -20 19 -5 4 -1 11 3 17 6 15 -5 7 8 -6 3 11 -15 -4 11 15 11 -5 14 24

GFSMA_prec_radar_255.txt.gz
Reflectivity
-20 -20 12 -3 -20 -20 -20 -20 -20 -20 -20 -20 -20 -20 -20 -20 -20 -20 -20 -20 -20 -7 -3 -20 -20 -11 -20 -20 -20 -15 -15 6 17 15 16 11 16 18 15 16 13 18 18
-20 -20 9 9 -12 -20 -20 -20 -20 -20 -20 -20 -20 -20 -20 -20 -20 -20 -20 -20 -20 -20 -20 -20 -12 -20 -20 -20 -20 -0 5 14 13 15 15 12 15 17 8 12 -8 3 -11
-20 -20 -17 17 9 -10 -20 -20 -20 -20 -20 -20 -11 -20 -20 -20 -20 -20 -20 -20 -20 -20 -20 -19 -20 -20 -20 -18 11 13 10 12 11 13 14 10 8 16 9 -16 -20 -20 -20
-12 -20 -20 -13 -18 -20 -20 -20 -20 -20 -20 -20 -20 -15 -20 -20 -20 -20 -20 -20 -20 -20 5 8 5 -2 -20 11 7 -2 0 6 11 11 9 11 7 12 1 -20 -20 -20 -20
-20 -20 -20 -20 -20 5 -20 -20 -20 -20 -20 -20 -20 -3 -20 -20 -20 -20 -20 -20 -20 -20 -20 -20 -20 -14 -15 -20 -20 -13 1 5 -6 7 11 6 11 10 -20 -20 -20 -20 -20
-10 -20 -14 -20 -20 -18 -20 -20 -20 -20 -20 -20 -20 -10 -20 -20 -20 -20 -20 -20 -20 -20 -20 -20 -20 -20 -20 -20 -20 -20 -19 -6 -16 10 -4 10 11 2 -20 -20 -20 -20 -20
-8 25 -20 -20 -12 -20 -4 -20 -20 -20 -20 -20 -20 -20 -20 -20 -20 -20 -20 -20 -20 -20 -20 -20 -20 -20 -20 -20 -20 -20 -19 -20 -20 4 14 -19 15 15 -20 -20 -20 -20 -20
23 -6 22 -20 -20 -20 -18 -20 -20 -20 -20 -20 -20 -20 -20 -20 -20 -20 -20 -20 -20 -20 -20 -20 -20 -20 -20 -20 -20 -20 -20 -1 13 -20 2 9 15 17 -16 -20 -20 -20 -20
25 26 22 -6 -20 -20 -20 -10 -20 -20 -20 -20 -20 -20 -20 -20 -20 -20 -20 -20 -20 -20 -20 -20 -20 -20 -20 -20 -20 -20 -20 -20 -7 -1 -15 -20 4 13 13 -17 -20 -20 -20
45 34 26 29 21 -20 -20 -14 -20 -15 -20 -20 -20 -20 -20 -20 -20 -20 -20 -20 -20 -20 -20 -20 -20 -20 -20 -20 -20 -20 -20 -20 -20 -20 -20 -20 -19 -5 11 17 15 12 1
41 46 41 30 26 18 -11 -20 33 -20 -19 -20 -20 -20 -20 -20 -20 -20 -20 -20 -20 -20 -20 -20 -20 -20 -20 -20 -20 -20 -20 -20 -20 -20 -20 -19 -20 -15 -20 -20 13 14 19
17 36 37 37 28 8 9 -20 24 -20 14 -20 -20 -20 -20 -20 -20 -20 -20 -19 -20 -20 -20 -20 -20 -20 -20 -20 -20 -20 -20 -20 -20 -20 -20 -20 -20 -20 -20 -20 -5 5 15
8 24 34 40 49 22 12 4 26 19 -2 -14 -20 -20 -20 -20 -20 -20 -8 0 -20 -20 -20 -20 -20 -20 -20 -20 -20 -20 -20 -20 -20 -20 -20 -20 -20 -20 -20 -20 -20 -20 6
-19 -1 33 41 47 46 21 14 18 26 14 21 -20 -20 -20 -20 -20 -20 -20 -20 -20 -20 -20 -20 -20 -20 -20 -20 -20 -20 -20 -20 -20 -20 -20 -20 -20 -20 -20 -20 -20 -20 -20
-16 -11 12 24 28 19 46 22 -8 14 24 16 12 13 -20 -20 -20 -20 -20 -20 -20 -20 -20 -20 -20 -20 -20 -20 -20 -20 -20 -20 -20 -20 -20 -20 -20 -20 -20 -20 -20 -20 -20
-18 -7 8 23 31 35 47 34 13 15 24 23 20 13 -12 -20 -20 -20 -20 -20 -20 -20 -20 -20 -20 -20 -20 -20 -20 -20 -20 -20 -20 -20 -20 -20 -20 -20 -20 -20 -20 -20 -20
-20 -20 -15 18 26 40 49 44 40 27 0 28 22 -7 17 10 -20 -20 -20 -20 -20 -20 -20 -20 -20 -20 -20 -20 -20 -20 -20 -20 -20 -20 -20 -20 -20 -20 -20 -20 -20 -20 -20
-14 15 -20 -10 19 28 31 47 37 38 12 25 25 21 21 22 -20 -20 -20 -20 -20 -20 -20 -20 -20 -20 -20 -20 -20 -20 -20 -20 -20 -20 -20 -20 -20 -20 -20 -20 -20 -20 -20
19 -2 -20 -20 15 25 37 35 41 39 44 25 26 20 25 19 21 -20 -20 -20 -20 -20 -20 -20 -20 -20 -20 -20 -20 -20 -20 -20 -20 -20 -20 -20 -20 -20 -20 -20 -20 -20 -20
29 -13 -20 -8 13 27 31 28 27 34 42 44 40 36 29 5 18 -7 -20 -20 -20 -20 -20 -20 -20 -20 -20 -20 -20 -20 -20 -20 -20 -20 -20 -20 -20 -20 -20 -20 -20 -20 -20
30 -9 -20 2 1 19 23 13 29 31 37 43 34 45 29 33 16 -20 -20 2 -20 -20 -20 -20 -20 -20 -20 -20 -20 -20 -20 -20 -20 -20 -20 -20 -13 -20 -20 -20 -20 -20 -20
25 6 -20 -6 2 -1 18 16 20 35 36 39 29 42 23 28 26 23 -18 -2 17 14 -7 8 3 -20 -20 -20 -20 -20 -20 -20 -20 -20 -20 -20 -20 -20 -20 -20 -20 -20 -20
-2 -20 -20 -13 -5 -15 10 9 21 28 30 28 36 35 36 38 34 23 23 21 9 4 18 -16 -20 -20 -20 -20 -20 -20 -20 -20 -20 -20 -20 -20 -20 -20 -20 -20 -20 -20 -20
-7 -19 -2 -15 -5 -3 -10 -12 6 4 21 35 29 36 32 38 30 31 15 22 7 -4 -7 -3 -20 -20 -20 -20 -20 -20 -20 0 -20 -15 -15 9 -1 -20 -20 -20 -20 -20 -20
-20 -20 -20 -20 -15 -13 1 -5 -2 -7 5 20 23 29 29 30 31 28 27 15 9 -6 1 -3 -19 -16 -20 -12 4 -13 -20 -20 14 14 -3 -19 12 13 8 7 -20 -20 -20
-18 -20 -18 -20 -20 -2 -0 -18 -20 -18 -16 -4 0 -10 19 19 20 30 24 5 17 7 14 13 -20 10 14 -19 5 -4 -20 -20 -13 12 13 -18 10 11 17 7 5 -20 -20

GFSMA_prec_radar_261.txt.gz
Reflectivity
0 13 8 -19 -10 -9 -20 2 1 0 -20 -20 -20 -20 -13 -20 -20 -20 -20 -20 -16 10 11 6 -3 -7 -20 -20 -20 -20 -20 -20 -20 -20 -1 1 -8 -6 3 -17 -2 -13 -20
6 9 40 7 -20 -16 -20 -16 -13 -20 -20 -20 -20 -7 -20 -20 -20 -20 -20 -2 -19 10 11 6 0 12 -1 -6 -20 -20 -20 -20 2 9 10 -4 8 -5 10 -10 -8 -14 -20
14 -2 -2 22 -11 -20 -7 -1 -0 -7 -13 -20 -20 -20 -20 -14 -20 -20 -20 7 -3 13 12 13 6 11 10 -19 -20 -20 -20 -20 14 9 -12 1 -4 -1 -18 -16 -19 -20 -20
28 1 3 3 43 10 -20 -20 -1 3 -4 -20 -20 -20 -20 -20 -20 -20 -20 -1 7 7 12 14 10 12 5 -8 -20 -20 -19 -20 8 11 -5 -17 -2 9 -20 -20 -20 -20 -20
44 24 14 13 20 17 33 17 -5 -20 -11 -17 -20 -20 -20 -20 -20 -15 -20 -20 -14 2 1 8 -13 -2 -18 -12 -20 -16 -20 12 13 5 -11 -17 -20 -11 -8 -14 -11 -20 -20
22 41 18 -6 14 13 27 27 24 -8 -20 -9 -20 -19 -20 -9 -20 -20 -20 -20 -20 -20 8 7 -1 -4 12 13 4 -20 -7 1 -4 2 -19 -19 -1 -10 3 -19 -10 -20 -20
26 -4 44 10 10 7 -20 9 29 5 -11 9 -18 -9 -20 -20 -20 11 -20 -20 -20 12 -12 4 11 -19 2 12 13 15 10 5 0 -20 10 12 9 0 -2 -1 -20 -20 -20
19 19 16 42 5 -4 -5 15 21 22 -3 6 -20 -19 8 -12 -20 -20 7 -3 -20 -14 -5 -4 -20 -2 -20 -20 0 14 10 8 8 9 12 3 11 8 13 -20 -20 -20 -20
-10 -3 14 29 42 20 -2 26 21 26 23 4 -20 -20 -20 -20 -20 -20 -20 -9 4 -14 -20 -20 -20 -20 -20 -20 -20 -3 5 2 8 14 11 12 9 11 8 12 -20 -20 -20
-18 -20 13 3 36 33 23 30 23 5 27 -3 -18 -20 -20 -20 -15 -20 -20 -20 14 -20 -20 -17 -20 -20 -20 -20 -20 -20 -20 -20 -20 -19 11 8 5 6 1 13 9 -20 -20
-20 -5 -20 3 24 46 44 43 35 16 3 23 -4 -20 -20 -20 -20 -20 -20 -20 -12 -20 -20 -6 -20 -20 -20 -20 -20 -20 -20 -20 -20 -20 -2 -4 10 5 13 11 10 9 11
-3 -8 1 -19 3 22 31 43 35 41 21 13 18 -19 -20 -20 -20 -20 -20 -20 -20 -13 -20 -20 -20 -20 -20 -20 -20 -20 -20 -20 -20 -20 -20 -20 0 -5 10 -0 4 9 7
-5 -1 1 -2 -3 -2 18 28 36 37 36 42 29 17 -20 -20 -20 -20 -16 9 -9 -20 -16 -20 -20 -20 -20 -20 -20 -20 -20 -20 -20 -20 -20 -20 -20 -11 10 5 1 0 2
-1 -0 2 -7 2 10 19 23 24 37 43 19 39 22 8 -20 -15 -20 -20 -18 -6 -20 -20 -20 -20 -20 -20 -20 -20 -20 -20 -20 -20 -20 -20 -20 -20 -20 -20 -17 -1 1 -20
-13 2 4 7 19 12 15 12 26 27 31 36 24 28 8 -9 13 -20 -18 -20 -20 -20 -20 -20 -20 -20 -20 -20 -20 -20 -20 -20 -20 -20 -20 -20 -20 -20 -20 -20 -20 -20 -20
-17 -0 8 7 -12 0 15 3 10 19 25 25 35 27 26 3 23 2 -20 -20 -20 -20 -20 -20 -2 -6 -20 -20 -20 -20 -20 -20 -20 -20 -20 -20 -20 -20 -20 -20 -20 -20 -20
-13 1 11 -6 4 -7 9 20 15 9 16 27 29 27 25 29 21 14 -3 -13 -20 -20 -20 -20 -20 -14 -12 -20 -20 -20 -20 -20 -20 -20 -20 -20 -20 -20 -20 -20 -20 -20 -20
4 0 7 9 0 -6 9 13 12 18 10 22 27 9 34 28 6 36 -2 9 -20 -20 -20 -20 -20 -20 -20 -20 -20 -20 -20 -20 -20 -20 -20 -20 -20 -20 -20 -20 -20 -20 -20
3 17 5 20 14 10 1 8 14 11 19 12 15 27 29 16 9 2 4 -5 -20 6 -20 -20 -20 -20 -20 -20 -20 -20 -20 -20 -20 -20 -20 -20 -20 -20 -20 -20 -20 -20 -20
5 4 21 20 22 9 8 6 17 23 20 11 13 25 21 9 1 -12 18 -9 6 13 -12 -20 -20 -20 -20 -20 -20 -20 -20 -20 -20 -20 -20 -20 -20 -20 -20 -20 -20 -20 -20
17 20 17 16 26 15 26 26 5 6 30 27 22 15 10 7 27 21 21 8 3 10 18 12 -20 -20 -20 -20 -20 -20 -20 -20 -20 -20 -20 -20 -20 -20 -20 -20 -20 -20 -20
4 6 19 22 30 34 22 21 28 40 38 27 21 21 15 18 18 21 17 22 -12 2 -20 19 14 -20 -20 -20 -20 -20 -20 -20 -20 -20 -20 -20 -20 -20 -20 -20 -20 -20 -20
2 8 8 6 14 35 36 32 34 35 40 36 29 27 25 16 4 16 18 31 7 -1 -17 -2 -5 -20 -20 -20 -20 -20 -20 -20 -20 -20 -20 -20 -20 -20 -20 -20 -20 -20 -20
12 13 12 11 18 26 38 34 39 39 38 39 35 29 21 6 -3 9 9 26 19 4 -5 -16 -17 -2 12 -20 -20 -20 -20 -20 -20 -20 -20 -20 -20 -20 -20 -20 -20 -20 -20
17 20 20 17 10 21 25 25 23 30 37 37 33 26 11 9 -4 -0 30 29 12 26 24 21 14 6 10 -13 -20 -20 -20 -20 10 9 -20 -20 16 23 16 -5 -20 -16 -20
1 16 22 24 22 23 26 33 28 25 27 28 33 24 23 12 12 -0 6 -4 31 23 19 19 14 -6 -1 2 7 -20 -20 -20 -14 21 14 -18 20 18 27 20 -16 -20 -20

GFSMA_prec_radar_267.txt.gz
Reflectivity
12 32 21 33 24 28 17 8 6 -20 11 -20 -20 -20 -20 7 -20 -11 -20 -20 -20 -20 -5 4 10 -4 -20 -20 -20 -20 -20 -20 -20 -20 -20 -20 -20 4 -20 -19 -20 -20 -20
26 25 19 33 37 27 32 24 -19 -2 -2 -20 -20 -8 -20 2 -10 -0 -20 -20 -20 -20 -5 7 7 2 -6 -20 -20 -20 -20 -20 -20 -20 -20 -20 -20 -20 -20 -19 -20 -20 -20
11 6 29 33 30 38 34 26 -2 -9 -19 -20 -20 -19 -20 -18 -20 -6 -20 -20 -20 -20 -2 6 8 1 10 -2 -20 -20 -20 -20 -20 -20 -20 -20 -20 -20 -20 -20 -20 -20 -20
-5 -0 19 44 37 35 37 36 32 -4 -7 -4 -7 3 1 -2 -15 -13 -18 -12 -19 -1 -8 12 14 5 4 4 -1 -20 -20 -20 -20 -20 7 11 -17 5 -20 -5 -20 -20 -20
-11 -6 21 4 12 40 36 41 29 22 13 2 12 -20 -20 -20 -20 -15 -20 29 -20 -7 6 11 13 14 9 6 4 -8 -20 -20 -20 -4 13 13 -3 6 11 -20 -20 -20 -20
-20 4 12 33 15 25 36 34 38 35 11 -0 7 -20 -20 -20 3 -20 1 26 29 -7 16 7 -13 -8 15 12 8 4 -1 -20 -20 11 12 11 4 10 6 -20 -20 -20 -20
-8 -20 3 11 20 38 25 29 42 46 30 4 28 -15 23 -8 -1 20 -20 -20 28 31 16 13 2 -1 -6 12 14 5 3 18 -20 -20 4 10 -0 -20 10 -20 -20 -20 -20
-14 -9 -16 10 8 14 23 22 33 40 33 30 29 28 25 -2 -20 25 23 -14 -20 -3 -1 10 3 -11 -10 -9 -4 6 2 8 -20 -20 -16 -1 -20 -20 -14 -20 -15 -1 -20
-20 -1 -2 3 -2 14 23 18 15 33 32 28 28 25 27 6 -19 -18 -10 16 -20 9 7 8 6 5 -20 -19 -20 -20 -20 -20 8 -20 -20 -20 -20 -5 -20 -15 -20 -1 4
-9 1 -2 0 -20 7 12 25 26 37 36 34 37 22 -6 8 5 13 8 -9 20 2 -12 22 12 -20 -20 -20 0 -20 -20 -20 -20 -20 -20 -20 -7 11 -5 -9 4 5 0
-14 -20 -4 6 2 -7 11 12 24 28 34 33 40 30 26 12 -4 -20 17 12 9 12 -8 19 -20 -20 -20 -20 -20 -20 -20 -20 -20 -20 -20 -20 -20 8 7 3 4 -3 3
4 -20 -19 -7 9 3 8 11 11 34 36 47 47 21 24 15 2 -20 -20 -20 -20 -7 7 12 17 -20 -20 -20 -20 -20 -20 -20 -20 -20 -20 -20 -20 -20 -9 7 8 12 11
9 -8 -20 -20 8 3 6 5 8 17 42 28 42 35 30 29 11 -20 -20 10 -20 -13 8 -6 15 -20 -20 -20 -20 -20 -20 -20 -20 -20 -20 -20 -20 -20 -20 -20 -19 10 4
10 13 3 -6 -8 8 3 7 2 11 18 39 37 41 37 24 28 16 -18 -20 21 8 -19 -17 -20 -20 -20 -20 -20 -20 -20 -20 -20 -20 -20 -20 -20 -20 -20 -20 -20 -19 -20
1 2 7 -12 4 7 5 3 -14 18 11 14 26 31 42 36 31 24 1 -20 -20 27 18 -20 -20 -20 -20 -20 -20 -20 -20 -20 -20 -20 -20 -20 -20 -20 -20 -20 -20 -20 -20
-12 3 5 2 6 2 10 2 2 -4 7 16 17 23 39 43 38 27 15 9 -20 -20 -20 -20 -20 -20 -20 -20 -20 -20 -20 -20 -20 -20 -20 -20 -20 -20 -20 -20 -20 -20 -20
-15 -13 -18 6 -1 5 6 7 -4 1 -10 12 16 23 36 32 30 31 30 29 20 -15 9 -20 -20 -20 -20 -20 -20 -20 -20 -20 -20 -20 -20 -20 -20 -20 -20 -20 -20 -20 -20
-20 -20 7 9 4 5 5 6 9 1 1 12 20 21 25 26 13 5 33 33 9 29 -10 -20 -20 -20 -20 -20 -20 -20 -20 -20 -20 -20 -20 -20 -20 -20 -20 -20 -20 -20 -20
-2 -20 6 -2 12 6 6 4 6 7 -0 -4 16 19 23 19 12 -6 6 33 35 14 25 13 -20 -20 -20 -20 -20 -20 -20 -20 -20 -20 -20 -20 -20 -20 -20 -20 -20 -20 -20
11 5 10 9 7 9 1 3 2 11 -2 -12 1 11 20 10 22 20 26 25 28 31 24 25 -15 -19 -8 -19 -20 -20 -4 -20 -20 -20 -20 -20 -20 -20 -20 -20 -20 -20 -20
10 10 12 9 7 6 -8 2 -3 2 9 -19 -2 3 3 3 -1 4 13 24 13 28 25 11 14 -4 -20 -20 9 -20 -20 -20 -20 -20 -20 -20 -20 -20 -20 -20 -20 -20 -20
6 11 10 8 -0 11 -20 -14 -9 -2 7 2 -1 10 1 20 -3 -16 -15 -20 16 3 3 22 -16 -8 5 6 7 -20 1 -20 -1 -20 -20 -20 -20 -20 -20 -20 -20 -20 -20
9 13 -16 10 -3 5 -20 -13 -20 2 10 7 3 -20 4 -4 -1 -17 -20 -20 -20 18 -3 18 8 -13 -20 9 17 9 3 -20 -20 -20 -20 -20 -20 -20 -20 -20 -20 -20 -20
8 12 4 7 8 10 -20 -20 -20 0 20 16 4 -3 -20 -15 -4 -9 -20 -15 -20 19 22 21 20 3 19 3 -20 -16 -20 -20 -20 -20 -20 -20 -20 -20 -20 -20 -20 -20 -20
-2 10 7 -10 12 8 -20 -20 -8 1 5 14 3 3 -5 -11 18 -15 -6 6 5 -20 28 20 11 12 23 -2 18 23 22 -3 12 -11 -4 -20 -20 2 5 -20 -20 -20 -20
4 6 2 -7 7 12 -3 -20 -18 2 7 9 9 5 13 11 21 23 7 12 2 3 -11 -6 1 4 17 24 22 17 21 10 -5 4 -2 3 14 11 19 14 -8 -20 -20

GFSMA_prec_radar_273.txt.gz
Reflectivity
-11 -8 25 12 28 17 32 22 14 -4 -13 -17 -20 -20 -20 -20 33 31 11 37 35 28 -20 -20 -20 -20 -20 -20 -20 -20 -20 -20 -20 -20 -20 -20 -20 -20 2 -20 -20 -20 -20
-20 -17 33 32 6 28 28 30 26 14 2 19 -8 -20 -20 -20 -20 -6 -20 18 -13 -20 -14 -20 -18 -9 -20 -20 -20 -20 -20 -20 -20 -20 -20 -20 -20 -20 1 -20 -20 -20 -20
-20 -20 -1 11 26 24 26 15 28 26 16 30 27 -8 -20 -20 -15 26 -20 -3 35 -18 -16 -20 -20 -13 7 2 -20 -20 -20 -20 -20 -20 -20 -20 -20 -20 -20 -20 -20 -20 -20
-20 -20 -20 -19 1 32 25 47 40 37 22 27 16 -4 13 -4 2 22 11 -15 16 -1 17 -20 -20 -20 -4 7 3 -20 -20 -20 -20 -20 -20 -20 -18 -2 -20 -20 -20 -20 -20
-20 -20 -20 -20 -20 -11 16 27 36 27 34 28 22 11 19 21 10 -20 -20 -20 6 4 38 -20 -20 -20 -20 5 -2 -1 -20 -20 -20 -20 -20 -20 5 5 -19 -20 -20 -20 -20
-20 -20 -20 -20 -20 -8 -10 31 21 21 22 31 26 30 26 13 30 27 14 -20 -20 3 18 20 -20 -20 -2 15 3 -10 1 -20 -20 -20 -20 -20 -10 10 0 -20 -20 -20 -20
-20 -17 -15 -20 -20 -18 6 1 20 14 -4 15 32 14 27 19 9 31 31 -20 12 4 -20 25 -20 -20 -6 16 9 8 5 3 -20 -20 -20 -20 -20 -20 -17 -5 -20 -20 -20
-20 -10 -20 -20 -13 -0 0 0 28 25 31 30 25 30 31 19 11 40 32 22 -13 -15 -20 -15 -20 -20 -20 -6 -0 7 1 18 5 -20 -20 -9 -20 -14 -0 -2 -16 -1 -20
-20 -20 -14 -14 -9 -6 3 6 -1 23 31 26 32 29 34 31 13 28 35 27 -3 -2 2 -12 -20 -20 -20 -20 -1 0 7 -16 10 -10 -20 -20 -20 -3 -18 10 -13 -15 -11
5 -10 -6 -0 2 1 -11 0 -16 -1 14 12 27 27 27 29 38 25 42 23 4 -1 30 30 23 -20 -20 -20 2 9 9 7 5 1 -20 -20 -20 -15 -20 -18 -20 -20 -20
-16 -4 -20 -10 -0 -1 -3 -12 7 -17 4 9 29 28 24 22 32 33 34 11 9 8 7 24 11 -14 -20 -20 -20 1 -11 8 3 4 -16 -20 -20 -20 -20 -20 -20 -15 -20
-20 -9 -20 -18 -5 -2 -3 -20 -1 6 -3 5 17 10 24 33 25 34 31 32 29 15 10 1 17 11 33 -3 -20 -20 -20 -20 -20 -12 -20 -20 -20 -20 -20 -20 -20 -20 -20
-20 6 -6 -20 -7 6 -9 -14 -20 3 4 5 19 3 2 10 6 25 25 27 44 8 13 15 8 11 2 -18 -20 -20 -20 -20 -20 -20 -20 -20 -20 -20 -20 -20 -20 -20 -20
-20 -19 3 -20 3 -0 -5 -20 -20 -16 2 4 2 13 20 14 26 28 30 30 45 29 10 18 -4 8 -20 -20 -20 -20 -20 -20 -20 -20 -20 -20 -20 -20 -20 -20 -20 -20 -20
-4 -20 -19 6 7 9 1 -20 -20 -20 2 -1 5 3 11 5 28 27 16 31 39 38 10 -3 -20 -20 -20 -20 -20 -20 -20 -20 -20 -20 -20 -20 -20 -20 -20 -20 -20 -20 -20
6 -20 10 -20 -14 9 9 -20 -20 -20 1 -6 5 -0 2 23 8 18 19 21 32 35 17 -16 -20 -20 -20 -20 -20 -20 -20 -20 -20 -20 -20 -20 -20 -20 -20 -20 -20 -20 -20
-20 9 12 11 -20 -8 -3 -20 -20 -20 -1 4 3 -1 -7 -3 3 20 18 22 34 40 16 21 -15 -20 -20 -20 -20 -20 -20 -20 -20 -20 -20 -20 -20 -20 -20 -20 -20 -20 -20
-20 -20 7 14 -20 -20 -13 -20 -20 -20 -6 3 7 3 0 -7 2 1 -11 24 32 39 43 11 -9 17 -17 -20 -20 -20 -20 -20 -20 -20 -20 -20 -20 -20 -20 -20 -20 -20 -20
-20 -20 -15 8 -15 -13 -20 -20 -20 -17 -15 10 8 8 3 3 -8 20 25 29 22 30 31 37 20 -1 19 20 8 -17 -20 -20 -20 -20 -20 -20 -20 -20 -20 -20 -20 -20 -20
-20 -20 10 11 -9 -5 -16 -20 -20 -14 -16 5 9 8 6 7 8 16 -11 17 23 27 30 26 34 21 17 20 21 11 6 -20 -20 -20 -20 -20 -20 -20 -20 -20 -20 -20 -20
-20 -20 -17 10 -16 17 -20 -20 -20 -20 -1 -13 -3 7 8 15 20 18 21 15 21 26 33 36 14 20 21 24 16 22 -7 -20 -20 -20 -20 -20 -20 -20 -20 -20 -20 -20 -20
-20 -20 -6 7 -20 13 -20 -20 -20 -20 -2 -20 -4 3 4 11 7 2 25 27 32 18 25 27 23 21 22 -20 -20 0 17 -19 3 -20 -20 -20 -20 -20 -20 -20 -20 -20 -20
-20 -20 -20 -15 -19 2 -4 0 -20 -20 -20 3 3 -18 -0 1 10 -9 -8 13 32 30 21 19 30 21 12 1 10 16 13 5 -6 -20 -20 -20 -20 -20 -20 -20 -20 -20 -20
-8 -20 -20 -8 -5 1 -13 -4 -3 -20 -20 -15 -15 -11 -11 -20 3 0 -6 8 -11 12 18 15 35 27 31 16 19 -17 -16 41 31 12 9 -4 -20 -20 -20 -20 -20 -20 -20
-20 -20 -20 -19 -12 -20 -20 -7 -16 -19 -17 -3 5 -9 -16 -20 3 -6 -5 -10 -15 1 14 6 6 23 26 30 11 19 15 -0 11 6 2 12 -20 -20 -2 -20 -20 -20 -20
-3 -20 -20 -20 -20 2 -20 -3 -1 -10 -20 -20 5 10 19 9 -6 -14 -12 -1 -13 16 1 -14 -13 -2 8 24 33 29 25 22 30 -6 17 26 13 3 13 3 -14 -20 -20

GFSMA_prec_radar_276.txt.gz
Reflectivity
-20 -20 -3 9 32 21 25 23 8 4 26 6 -3 -20 -20 5 11 -20 33 22 45 34 2 -20 3 3 -20 -20 -20 -20 -20 -20 -20 -20 -20 -20 -20 -7 12 17 -6 -20 -20
-20 -20 -4 5 36 31 24 39 19 27 18 24 10 -20 -20 -4 13 -20 -20 28 -2 30 31 -3 -20 3 -14 -20 -20 -20 -20 -20 -20 -20 -20 -20 -20 -20 14 -7 -20 -20 -20
-20 -20 -20 1 3 21 24 37 27 32 26 24 11 -19 32 -17 12 16 -20 29 4 27 27 34 -20 -20 -20 -20 -20 -20 -20 -20 -20 -20 -20 -20 -20 -19 -20 -20 -20 -20 -20
-20 -20 -20 -20 -5 5 16 2 37 40 26 11 26 15 -13 -18 8 13 -9 -20 3 32 38 30 -13 -20 -20 -20 -19 -20 -20 -20 -20 -20 -20 -20 -20 -17 1 -20 -20 -20 -20
-20 -20 -20 -20 -19 -10 5 6 27 40 43 29 26 29 9 12 -9 16 10 -16 -11 -13 40 30 -6 -20 -20 -20 -12 -1 -11 -20 -20 -20 -20 -20 -20 12 16 -8 -20 -20 -20
-20 -20 -15 -20 -5 2 1 6 27 35 40 39 36 33 28 20 29 -2 17 -2 -6 19 24 29 33 -18 -20 -20 3 7 9 -10 -20 -20 -20 -20 2 13 15 13 -20 -20 -20
-20 -20 -5 -20 -3 3 2 3 5 19 30 39 35 27 23 33 21 -20 17 -15 -20 -20 10 -13 -10 -20 -20 -20 -4 9 6 13 -1 -20 -20 -20 -20 -3 16 13 3 -20 -20
-20 -19 -19 -20 11 0 -2 -20 8 -6 40 32 23 18 18 21 32 9 -12 22 -15 -20 -20 2 -20 -20 -20 -20 -20 5 7 7 6 1 -20 -20 -20 8 13 14 6 -0 -20
-20 -12 1 -4 6 10 -2 -12 2 -9 9 33 39 27 13 0 15 19 -16 14 7 -10 29 31 31 -20 -20 -20 -20 -16 8 -20 5 4 -20 -20 -14 13 13 13 14 8 16
-15 -18 -3 2 11 11 12 8 -16 3 -7 -1 25 32 29 16 16 37 15 -9 21 12 -20 28 31 19 22 -20 -20 -11 -1 -20 -16 6 -20 -20 -20 -20 -13 13 14 13 17
-20 -19 -9 -2 -1 8 8 11 8 -11 4 6 21 28 25 15 26 16 28 8 21 11 8 -20 -20 24 13 25 -20 -12 3 8 -5 -20 -20 -20 -20 -20 -16 4 14 14 13
-20 -20 -20 -20 -20 2 -4 -3 -13 -14 -5 3 6 29 25 31 26 29 32 27 28 27 17 29 29 9 31 13 -20 -20 -20 7 14 1 -16 -20 -20 -20 -20 -20 -12 9 4
-20 1 -7 1 -20 -20 4 -1 -20 -19 -6 3 2 10 15 25 30 29 27 34 10 27 33 25 29 13 -16 -6 -20 -20 -20 -20 -12 7 -12 -20 -20 -20 -20 -20 -20 -20 -20
-20 7 11 -4 10 9 11 -11 -20 -20 -20 -1 0 6 4 5 4 23 26 26 28 26 27 16 -14 26 -15 -11 -11 -20 -20 -20 -20 -20 -20 -20 -20 -20 -20 -20 -20 -20 -20
-20 -1 7 7 -3 -20 3 -20 -20 -20 -11 -11 2 5 6 5 15 19 27 32 33 32 31 -2 16 1 27 -19 -20 -13 -20 -20 -20 -20 -20 -20 -20 -20 -20 -20 -20 -20 -20
-20 -20 -20 -15 -20 -20 3 -20 -20 -19 -6 -12 5 5 -5 2 1 27 24 10 31 8 31 20 27 10 17 18 10 4 -20 -20 -20 -20 -20 -20 -20 -20 -20 -20 -20 -20 -20
-20 -20 -20 -17 -20 -20 -20 -20 -20 -15 -12 -14 8 6 5 -15 -6 3 2 18 20 -9 7 20 36 33 10 26 -5 -10 -18 31 -20 -20 -20 -20 -20 -20 -20 -20 -20 -20 -20
-20 -20 -20 -13 -20 4 -1 -20 -20 -20 -9 0 10 8 7 1 -1 0 21 23 9 16 8 30 20 32 25 28 29 -19 -19 -20 -20 -20 -20 -20 -20 -20 -20 -20 -20 -20 -20
-20 -20 -20 -2 -20 11 -10 -20 -20 -20 9 10 5 12 10 6 3 -6 -1 3 19 17 21 7 19 39 20 25 24 24 20 -12 -20 -20 -18 -20 -20 -20 -20 -20 -20 -20 -20
-20 -20 -20 -15 -20 26 -20 -20 -10 -20 -1 5 -18 10 10 10 8 -4 -11 -11 15 11 8 -14 34 29 21 12 25 20 18 14 -10 -20 -20 -20 -18 -19 -20 -20 -20 -20 -20
-20 -20 -20 -13 -20 13 -7 -3 -12 -18 2 2 -2 5 8 15 11 14 6 -16 -10 -19 -7 8 22 31 17 22 19 18 18 3 -7 9 -20 -20 -19 -18 -15 -4 -20 -20 -20
-20 -20 -20 -20 -15 -19 -6 10 9 -18 4 1 6 3 3 10 16 5 9 -2 -19 3 19 32 23 35 31 6 20 27 7 25 8 -20 -20 -20 -20 -20 -20 -20 -20 -20 -20
-20 -20 -20 -20 -15 -20 3 8 8 -18 -3 -12 2 -20 -9 -1 10 -5 -5 1 17 18 21 22 17 26 34 25 20 20 2 15 7 -20 -20 8 -20 -20 -20 -20 -20 -20 -20
-20 -20 -20 -20 -20 -10 9 -1 8 6 -20 10 -13 -7 -18 -20 -5 -3 -13 -8 2 4 6 -3 18 13 20 39 28 12 24 6 18 23 -20 11 -20 -20 -20 -20 -20 -20 -20
-20 -20 -20 -20 -20 -20 11 4 4 -20 -20 -20 -20 -14 -17 -16 6 1 -20 -20 -16 12 21 27 29 29 27 26 35 37 33 8 11 -11 27 24 -20 -10 -6 -20 -20 -20 -20
-20 -20 -20 -20 -20 -20 8 10 5 -20 -20 -20 -20 -20 -10 -18 4 6 -18 -20 -20 -13 30 27 27 20 26 35 36 38 28 21 19 -20 17 25 9 7 12 2 -19 -20 -20

GFSMA_prec_radar_279.txt.gz
Reflectivity
-20 -20 -20 -20 -6 5 38 36 34 28 -3 -17 7 28 13 9 5 -12 13 -20 -20 -20 15 12 9 -4 6 -13 -20 -1 -11 -16 -20 -20 -20 -20 -20 13 15 17 17 -20 -20
-20 -20 -20 -20 -20 2 -2 37 37 28 16 -3 -18 21 21 12 11 -20 20 -20 -20 0 -5 7 26 9 11 2 -20 -11 -2 -17 -20 -20 -20 -20 -20 8 19 14 17 -20 -20
-20 -20 -20 -20 -11 -20 -1 18 36 19 37 23 8 26 29 10 11 12 -10 -6 29 15 7 8 13 7 14 3 -1 -12 -1 -19 -20 -20 -20 -20 -20 -20 10 14 -18 -20 -20
-20 -20 -20 -20 -20 -3 -14 7 2 15 39 31 24 13 30 16 11 13 -0 -16 29 30 35 17 15 -8 8 9 2 -4 -1 -20 -20 -20 -20 -20 -20 -20 -20 -20 -20 -20 -20
-20 -20 -20 -20 -20 11 -19 -3 0 6 16 33 35 38 29 32 22 14 -3 2 -20 6 27 24 22 -17 12 6 1 -15 -3 -20 -20 -20 -20 -20 -20 -20 15 16 -20 -20 -20
-20 -20 -20 -20 -15 1 -1 -20 -20 -2 17 18 26 40 29 34 31 13 -20 8 12 -6 -15 11 13 9 -12 11 -2 -20 -2 2 -20 -20 -20 -20 -20 -16 13 12 8 -20 -20
-20 -20 -10 -0 -18 -2 -7 -5 7 -1 -3 39 31 39 44 35 33 23 13 -20 -2 24 9 11 22 -16 -18 -4 -9 -20 -9 18 5 -20 -20 -20 -20 -20 9 12 14 14 -20
-12 -20 -6 0 -4 -16 2 10 8 5 -11 23 35 34 43 35 28 13 -19 28 -1 17 -4 16 35 22 -0 8 -5 -13 7 14 17 0 -20 -20 -20 -20 -13 14 12 12 -2
-20 -20 -17 -10 6 -5 -4 -2 -10 2 4 4 12 31 35 42 38 28 25 24 19 28 13 12 39 48 27 -19 -17 -1 3 7 11 -3 -20 -20 -20 -20 0 9 8 15 14
-20 -20 -5 -20 -20 1 -12 2 -20 -20 0 2 20 23 32 38 37 23 19 25 23 31 18 31 30 32 28 -13 -10 -20 -16 -20 2 10 -16 -20 -20 -20 2 -1 15 13 8
-20 -20 -13 8 -20 -9 -4 7 -20 -20 -14 4 1 11 18 30 29 26 30 -2 22 1 21 32 1 29 26 31 -15 -20 -20 -20 -20 -2 7 -20 -20 -20 -20 12 15 10 13
-20 -11 7 5 -6 8 2 -19 -20 -20 -19 0 2 2 18 37 40 36 28 26 24 1 7 11 13 24 7 29 24 -8 -20 -20 -7 -14 -9 -20 -20 -20 -20 -12 7 13 15
-20 -20 -4 -7 -11 -10 3 -20 -20 -20 -18 -8 -1 3 11 31 31 28 32 26 8 2 9 20 23 -0 21 26 8 5 -8 -20 6 -5 1 -20 -20 -20 -20 -20 -20 -12 11
-20 -20 -20 -20 -20 -20 5 -20 -20 -10 -12 -15 -20 1 7 3 10 28 37 39 24 4 21 -6 -19 -6 23 19 -19 -7 -15 -20 -20 -13 -5 -0 -20 -20 -20 -20 -20 -20 -20
-20 -20 -20 -20 -20 -19 -12 -20 -20 2 6 -16 -5 7 6 -5 3 11 12 28 26 30 18 0 -19 -8 14 1 -20 -20 -15 26 -20 -20 -20 -20 -20 -20 -20 -20 -20 -20 -20
-20 -20 -20 -20 -19 -15 -2 -20 -20 -5 -20 -6 -2 5 4 4 -10 6 14 22 30 28 15 15 20 23 17 21 16 -0 9 -20 24 -20 -20 -20 -20 -20 -20 -20 -20 -20 -20
-20 -20 -20 4 -1 12 -20 -20 -8 -20 -20 -0 8 -5 10 8 4 -2 1 -4 9 13 21 23 24 17 23 30 32 19 26 28 24 -20 -20 -19 6 -20 -20 -20 -20 -20 -20
-20 -20 -20 -10 -20 7 -8 -20 2 -20 -8 6 3 -1 9 11 6 3 -11 -15 -11 -3 25 27 26 16 22 26 28 23 -2 -19 15 -5 -20 -20 -8 5 -18 -20 -20 -20 -20
-20 -20 -20 -1 -20 12 -20 -14 -20 -19 -0 3 2 16 7 10 8 2 1 -1 7 14 23 21 -7 5 22 22 16 21 14 10 16 22 24 -8 -20 -3 2 -5 -20 -20 -20
-20 -20 -20 -16 -17 -0 -20 -8 -11 -8 -8 -17 7 6 7 8 10 3 3 -16 -2 7 24 11 1 -20 15 15 -8 29 27 10 4 -16 -3 22 -16 -11 1 5 8 -20 -20
-20 -20 -20 -20 -8 -4 -2 8 1 -17 -2 -14 -3 -1 0 12 11 7 7 1 0 -9 11 -3 14 3 -4 25 26 38 30 23 -13 -3 -1 19 -12 -17 -14 10 11 10 -20
-20 -20 -20 -20 -20 8 10 11 6 -20 -6 -10 -2 -0 -15 5 3 -1 8 9 9 1 20 -1 20 5 1 11 21 32 7 -2 27 4 -0 -15 -20 -20 -20 -20 4 7 8
-20 -20 -20 -20 -20 -20 9 8 10 -3 0 -16 -13 0 3 1 -8 -17 -2 18 13 14 11 17 24 -1 17 5 20 18 23 26 36 21 1 -7 -20 -20 -20 -20 -11 4 11
-20 -20 -20 -20 -20 -13 8 7 -0 -19 -20 -20 -12 2 3 -1 -17 -13 -11 1 2 -6 -6 12 19 14 8 9 14 24 23 20 19 24 11 12 -20 -20 -20 -20 -20 -20 -1
-20 -20 -20 -20 -20 -20 8 8 -13 -20 -20 -13 -20 -18 -3 2 6 -2 -20 -16 15 -4 2 9 -17 16 21 19 17 26 31 24 17 -2 14 34 -12 -11 -7 -20 -20 -20 -20
-20 -20 -20 -20 -18 -20 4 -1 5 -20 -3 -20 -20 -10 8 -0 -6 -17 -20 -20 -19 -0 3 -12 -12 5 13 22 11 13 14 29 12 12 32 -3 20 5 6 -1 -19 -20 -20

GFSMA_prec_radar_285.txt.gz
Reflectivity
-20 -20 -20 -20 -20 -20 -20 -20 -11 -3 -11 19 34 34 25 29 28 19 -2 4 -18 -16 -8 17 26 -5 1 -13 -20 -20 -17 -6 -20 -20 -20 -18 7 -20 -19 -20 -20 -20 -20
-20 -20 -20 -20 -20 -20 -20 -20 -20 -4 0 19 35 33 31 28 28 26 5 17 1 17 -20 -14 17 8 4 1 -4 -20 -20 -20 -19 -20 -20 -18 -16 -2 -20 -20 -20 -20 -20
-20 -20 -20 -20 -20 -20 -20 -20 -19 -6 -19 -3 4 41 32 30 9 34 18 28 -4 31 -18 -17 19 -9 -1 -5 -0 -5 -20 -20 -20 -20 -20 -20 -20 -20 -20 -20 -20 -20 -20
-20 -20 -20 -20 -17 -16 -15 -20 -20 -20 -9 -15 10 36 39 22 26 25 29 -8 -10 -12 30 28 35 -6 -10 0 5 -10 -0 -20 -10 -20 -20 -20 -20 -20 -20 -20 -20 -20 -20
-20 -20 -20 -20 -20 -15 -17 -14 -20 -15 -19 -3 4 23 30 14 32 32 30 24 30 11 33 27 33 18 -5 -19 4 -2 4 -20 -16 -20 -20 -20 -20 -20 -20 -20 -20 -20 -20
-20 -20 -20 -5 -20 -20 -14 -6 -20 -20 -20 -1 -1 -15 10 35 29 35 35 27 1 35 28 36 28 34 1 2 -18 -0 -1 -1 -9 -17 -20 -20 -20 -20 -20 -20 -20 -20 -20
-20 -20 -6 6 11 4 6 -8 -17 -20 -20 -15 -18 -19 -13 15 36 31 38 29 29 28 22 -5 41 34 34 -19 5 8 3 3 6 -6 -20 -20 -20 -20 -20 -20 -20 -20 -20
-20 -20 7 11 12 12 9 9 -13 -20 -11 4 9 -1 -1 24 34 31 33 35 28 28 34 28 25 27 32 24 -12 10 0 3 -2 -20 -19 -20 -20 -20 -20 -20 -20 -20 -20
-20 -20 9 14 11 12 16 5 -20 1 -1 -2 3 5 6 20 36 33 34 36 32 31 31 23 34 19 27 27 -12 7 10 -4 -3 -20 -13 -20 -20 -20 -20 -20 -20 -4 2
-20 -20 6 9 11 11 13 -9 -20 -10 6 6 2 7 5 25 29 18 15 20 35 34 33 33 15 32 1 9 1 -8 -16 -20 -16 -20 -11 -20 -20 -20 -20 -20 -20 -19 7
-20 -19 4 11 13 7 17 -11 0 -20 2 6 7 5 13 17 17 28 10 19 38 38 34 34 41 20 35 25 27 -6 -20 -20 -20 -20 -20 -20 -20 -20 -20 -20 -20 -20 9
-20 1 -1 -7 7 13 17 1 -19 -20 0 2 4 6 13 17 9 24 20 14 17 23 38 35 33 32 17 26 10 -13 -20 -20 -20 -20 -20 -20 -20 -20 -20 -20 -20 -18 3
0 2 -2 -10 13 5 1 -0 -20 -20 -14 6 7 8 10 19 16 10 18 24 28 25 31 38 32 27 30 24 -2 -17 -20 -20 -20 -20 -20 -13 -9 -20 -20 -20 -20 -20 -4
3 3 -20 -10 -5 6 1 -20 -20 -20 -14 8 9 9 8 11 18 23 19 36 29 33 30 38 44 33 32 23 -9 10 -20 -20 -20 -20 -20 -20 2 -20 -20 -20 -20 -20 -20
-2 -3 -20 3 2 1 -5 -17 -19 -12 6 6 10 6 10 4 16 26 25 23 12 33 33 21 37 37 27 9 -0 -11 -20 -20 -20 -20 -18 -20 -2 -16 -20 -20 -20 -20 -20
-6 -0 -0 6 2 1 5 4 4 5 8 8 7 9 6 7 6 13 24 18 14 28 36 37 34 36 35 23 25 28 3 -11 -12 -7 -20 -20 -18 9 2 -20 -20 -20 -20
-1 -2 0 11 -2 5 10 5 7 6 8 8 6 9 4 4 7 15 14 15 11 7 26 29 19 31 28 33 29 28 21 4 3 -15 -20 -20 -3 -17 10 -9 -20 -20 -20
-19 -2 -3 0 4 9 11 4 8 8 8 9 9 2 2 -2 0 10 12 6 3 7 6 33 26 27 22 38 28 23 5 18 10 25 -20 -20 1 -20 -20 6 -2 -18 -20
-20 -2 -3 0 -20 2 14 4 7 7 7 9 6 3 6 1 -14 6 8 8 7 3 15 31 24 25 27 33 33 35 36 37 40 30 22 18 5 -8 -20 -20 0 10 -3
-20 -3 -20 -7 -16 4 12 8 5 7 4 6 2 8 4 7 9 9 6 6 20 9 21 31 30 22 30 18 32 36 37 37 33 42 22 20 19 10 -5 -15 -20 -20 10
-20 -1 -20 -20 -0 6 12 9 0 5 5 7 5 1 4 7 4 2 8 3 4 11 12 8 5 28 19 20 23 34 26 23 33 34 20 14 14 -20 -14 15 5 -15 -20
-20 -3 -20 -20 1 7 8 4 -2 4 5 8 6 2 1 5 3 -5 -6 -2 2 6 1 5 -1 -3 36 30 20 28 26 39 34 27 26 18 23 -20 -20 -20 7 -5 -5
-20 -3 -17 -20 0 3 8 1 -14 0 5 7 6 3 -2 -4 2 -11 -19 -12 -0 5 7 2 5 4 17 26 -3 21 19 15 8 10 25 23 -6 15 -17 -5 -19 -20 -20
-20 -20 -6 -20 -20 -4 7 -2 -8 -11 -3 -0 1 3 6 -13 5 0 -20 -20 -2 -6 -1 2 3 14 9 11 14 30 2 1 3 8 11 17 -3 19 -1 -13 -19 -20 -15
-20 -20 -20 -12 -18 -2 4 7 -17 -20 -20 -1 -17 -2 6 3 1 -15 -20 -20 -20 -17 6 3 6 16 29 23 20 21 18 5 -20 -19 10 12 1 -16 9 -6 6 1 3
-20 -20 -20 -20 -12 -20 -18 8 -4 -16 -14 -19 -20 -20 -4 0 -1 -18 -6 -16 -20 -14 -10 -5 -19 -4 7 10 20 23 23 7 12 -3 -3 7 9 22 15 2 -19 -20 -0